Time,TemperatureF,DewpointF,PressureIn,WindDirection,WindDirectionDegrees,WindSpeedMPH,WindSpeedGustMPH,Humidity,HourlyPrecipIn,Conditions,Clouds,dailyrainin,SoftwareType,DateUTC
2013-04-28 00:02:00,62.2,60.2,29.94,NW,315,0.0,0.0,93,0.00,,---,0.00,VWS V14.01,2013-04-28 05:02:00,
2013-04-28 00:03:00,62.2,60.2,29.94,WNW,286,1.0,3.0,93,0.00,,---,0.00,VWS V14.01,2013-04-28 05:03:00,
2013-04-28 00:07:00,62.1,60.1,29.94,WNW,283,0.0,3.0,93,0.00,,---,0.00,VWS V14.01,2013-04-28 05:07:00,
2013-04-28 00:08:00,62.1,60.1,29.94,WNW,283,0.0,3.0,93,0.00,,---,0.00,VWS V14.01,2013-04-28 05:08:00,
2013-04-28 00:12:00,62.0,59.7,29.95,West,280,0.0,3.0,92,0.00,,---,0.00,VWS V14.01,2013-04-28 05:12:00,
2013-04-28 00:13:00,62.0,59.7,29.95,WNW,290,4.0,5.0,92,0.00,,---,0.00,VWS V14.01,2013-04-28 05:13:00,
2013-04-28 00:17:00,61.8,59.5,29.95,WNW,285,2.0,5.0,92,0.00,,---,0.00,VWS V14.01,2013-04-28 05:17:00,
2013-04-28 00:18:00,61.8,59.5,29.95,WNW,285,0.0,5.0,92,0.00,,---,0.00,VWS V14.01,2013-04-28 05:18:00,
2013-04-28 00:22:00,61.5,58.8,29.95,WNW,284,1.0,5.0,91,0.00,,---,0.00,VWS V14.01,2013-04-28 05:22:00,
2013-04-28 00:23:00,61.5,58.8,29.95,WNW,285,0.0,5.0,91,0.00,,---,0.00,VWS V14.01,2013-04-28 05:23:00,
2013-04-28 00:27:00,61.3,58.7,29.96,WNW,287,3.0,6.0,91,0.00,,---,0.00,VWS V14.01,2013-04-28 05:27:00,
2013-04-28 00:28:00,61.3,58.7,29.96,WNW,287,1.0,6.0,91,0.00,,---,0.00,VWS V14.01,2013-04-28 05:28:00,
2013-04-28 00:29:00,61.3,59.0,29.96,WNW,283,2.0,6.0,91,0.00,,,0.00,weatherlink.com 1.10,2013-04-28 05:29:00,
2013-04-28 00:33:00,61.1,58.5,29.96,WNW,301,0.0,2.0,91,0.00,,---,0.00,VWS V14.01,2013-04-28 05:33:00,
2013-04-28 00:34:00,61.1,58.5,29.96,WNW,301,0.0,2.0,91,0.00,,---,0.00,VWS V14.01,2013-04-28 05:34:00,
2013-04-28 00:38:00,61.0,58.4,29.95,WNW,301,0.0,2.0,91,0.00,,---,0.00,VWS V14.01,2013-04-28 05:38:00,
2013-04-28 00:39:00,61.0,58.4,29.95,WNW,302,0.0,2.0,91,0.00,,---,0.00,VWS V14.01,2013-04-28 05:39:00,
2013-04-28 00:43:00,60.9,58.6,29.96,WNW,301,0.0,2.0,92,0.00,,---,0.00,VWS V14.01,2013-04-28 05:43:00,
2013-04-28 00:44:00,60.9,58.6,29.96,WNW,301,0.0,2.0,92,0.00,,---,0.00,VWS V14.01,2013-04-28 05:44:00,
2013-04-28 00:48:00,60.8,58.5,29.96,WNW,301,0.0,1.0,92,0.00,,---,0.00,VWS V14.01,2013-04-28 05:48:00,
2013-04-28 00:49:00,60.7,58.4,29.96,WNW,301,0.0,1.0,92,0.00,,---,0.00,VWS V14.01,2013-04-28 05:49:00,
2013-04-28 00:50:00,60.7,58.4,29.96,WNW,301,0.0,1.0,92,0.00,,---,0.00,VWS V14.01,2013-04-28 05:50:00,
2013-04-28 00:53:00,60.7,58.4,29.96,WNW,297,0.0,2.0,92,0.00,,---,0.00,VWS V14.01,2013-04-28 05:53:00,
2013-04-28 00:54:00,60.6,58.3,29.96,WNW,297,0.0,2.0,92,0.00,,---,0.00,VWS V14.01,2013-04-28 05:54:00,
2013-04-28 00:55:00,60.6,58.3,29.96,WNW,297,0.0,2.0,92,0.00,,---,0.00,VWS V14.01,2013-04-28 05:55:00,
2013-04-28 00:58:00,60.6,58.6,29.96,West,269,3.0,3.0,93,0.00,,---,0.00,VWS V14.01,2013-04-28 05:58:00,
2013-04-28 00:59:00,60.6,58.6,29.96,WNW,295,0.0,3.0,93,0.00,,---,0.00,VWS V14.01,2013-04-28 05:59:00,
2013-04-28 01:00:00,60.6,58.6,29.96,West,280,2.0,3.0,93,0.00,,---,0.00,VWS V14.01,2013-04-28 06:00:00,
2013-04-28 01:03:00,60.5,58.5,29.95,WNW,301,0.0,7.0,93,0.00,,---,0.00,VWS V14.01,2013-04-28 06:03:00,
2013-04-28 01:04:00,60.4,58.4,29.95,West,278,2.0,7.0,93,0.00,,---,0.00,VWS V14.01,2013-04-28 06:04:00,
2013-04-28 01:05:00,60.3,58.3,29.95,WNW,292,0.0,7.0,93,0.00,,---,0.00,VWS V14.01,2013-04-28 06:05:00,
2013-04-28 01:08:00,60.2,58.2,29.95,WNW,289,3.0,7.0,93,0.00,,---,0.00,VWS V14.01,2013-04-28 06:08:00,
2013-04-28 01:09:00,60.1,58.1,29.95,WNW,297,1.0,7.0,93,0.00,,---,0.00,VWS V14.01,2013-04-28 06:09:00,
2013-04-28 01:10:00,60.1,58.1,29.95,WNW,283,3.0,7.0,93,0.00,,---,0.00,VWS V14.01,2013-04-28 06:10:00,
2013-04-28 01:13:00,59.9,57.6,29.95,WNW,295,5.0,8.0,92,0.00,,---,0.00,VWS V14.01,2013-04-28 06:13:00,
2013-04-28 01:14:00,59.8,57.5,29.95,WNW,287,3.0,8.0,92,0.00,,---,0.00,VWS V14.01,2013-04-28 06:14:00,
2013-04-28 01:15:00,59.8,57.5,29.95,WNW,282,4.0,8.0,92,0.00,,---,0.00,VWS V14.01,2013-04-28 06:15:00,
2013-04-28 01:18:00,59.7,57.7,29.95,WNW,295,3.0,5.0,93,0.00,,---,0.00,VWS V14.01,2013-04-28 06:18:00,
2013-04-28 01:19:00,59.6,57.6,29.95,WNW,288,3.0,5.0,93,0.00,,---,0.00,VWS V14.01,2013-04-28 06:19:00,
2013-04-28 01:21:00,59.6,57.6,29.95,NW,304,5.0,7.0,93,0.00,,---,0.00,VWS V14.01,2013-04-28 06:21:00,
2013-04-28 01:23:00,59.5,57.5,29.95,WNW,292,4.0,7.0,93,0.00,,---,0.00,VWS V14.01,2013-04-28 06:23:00,
2013-04-28 01:24:00,59.5,57.5,29.95,WNW,292,5.0,7.0,93,0.00,,---,0.00,VWS V14.01,2013-04-28 06:24:00,
2013-04-28 01:25:00,59.5,57.5,29.95,West,267,0.0,7.0,93,0.00,,---,0.00,VWS V14.01,2013-04-28 06:25:00,
2013-04-28 01:26:00,59.5,57.5,29.95,WNW,287,3.0,7.0,93,0.00,,---,0.00,VWS V14.01,2013-04-28 06:26:00,
2013-04-28 01:28:00,59.5,57.5,29.95,West,270,2.0,7.0,93,0.00,,---,0.00,VWS V14.01,2013-04-28 06:28:00,
2013-04-28 01:29:00,59.5,57.5,29.95,WNW,283,2.0,7.0,93,0.00,,---,0.00,VWS V14.01,2013-04-28 06:29:00,
2013-04-28 01:30:00,59.5,57.5,29.95,WNW,291,0.0,7.0,93,0.00,,---,0.00,VWS V14.01,2013-04-28 06:30:00,
2013-04-28 01:31:00,59.5,57.5,29.95,WNW,291,1.0,1.0,93,0.00,,---,0.00,VWS V14.01,2013-04-28 06:31:00,
2013-04-28 01:33:00,59.5,57.5,29.95,WNW,290,0.0,1.0,93,0.00,,---,0.00,VWS V14.01,2013-04-28 06:33:00,
2013-04-28 01:34:00,59.5,57.5,29.95,WNW,290,0.0,1.0,93,0.00,,---,0.00,VWS V14.01,2013-04-28 06:34:00,
2013-04-28 01:35:00,59.5,57.5,29.94,WNW,290,0.0,1.0,93,0.00,,---,0.00,VWS V14.01,2013-04-28 06:35:00,
2013-04-28 01:36:00,59.4,57.4,29.94,West,276,0.0,1.0,93,0.00,,---,0.00,VWS V14.01,2013-04-28 06:36:00,
2013-04-28 01:39:00,59.4,57.4,29.95,West,276,0.0,1.0,93,0.00,,---,0.00,VWS V14.01,2013-04-28 06:39:00,
2013-04-28 01:40:00,59.4,57.7,29.94,West,271,0.0,1.0,94,0.00,,---,0.00,VWS V14.01,2013-04-28 06:40:00,
2013-04-28 01:41:00,59.4,57.7,29.94,West,270,0.0,1.0,94,0.00,,---,0.00,VWS V14.01,2013-04-28 06:41:00,
2013-04-28 01:44:00,59.4,57.7,29.94,West,270,0.0,1.0,94,0.00,,---,0.00,VWS V14.01,2013-04-28 06:44:00,
2013-04-28 01:45:00,59.4,57.4,29.94,West,270,0.0,1.0,93,0.00,,---,0.00,VWS V14.01,2013-04-28 06:45:00,
2013-04-28 01:46:00,59.4,57.4,29.94,West,270,1.0,2.0,93,0.00,,---,0.00,VWS V14.01,2013-04-28 06:46:00,
2013-04-28 01:49:00,59.3,57.3,29.94,WNW,285,0.0,5.0,93,0.00,,---,0.00,VWS V14.01,2013-04-28 06:49:00,
2013-04-28 01:50:00,59.3,57.3,29.94,WNW,284,1.0,5.0,93,0.00,,---,0.00,VWS V14.01,2013-04-28 06:50:00,
2013-04-28 01:51:00,59.3,57.6,29.94,WNW,285,0.0,5.0,94,0.00,,---,0.00,VWS V14.01,2013-04-28 06:51:00,
2013-04-28 01:54:00,59.3,57.3,29.94,WNW,285,0.0,5.0,93,0.00,,---,0.00,VWS V14.01,2013-04-28 06:54:00,
2013-04-28 01:55:00,59.3,57.3,29.94,WNW,284,0.0,5.0,93,0.00,,---,0.00,VWS V14.01,2013-04-28 06:55:00,
2013-04-28 01:56:00,59.3,57.3,29.94,WNW,285,0.0,5.0,93,0.00,,---,0.00,VWS V14.01,2013-04-28 06:56:00,
2013-04-28 01:59:00,59.3,57.3,29.94,WNW,285,3.0,5.0,93,0.00,,---,0.00,VWS V14.01,2013-04-28 06:59:00,
2013-04-28 02:00:00,59.3,57.3,29.94,WNW,290,2.0,5.0,93,0.00,,---,0.00,VWS V14.01,2013-04-28 07:00:00,
2013-04-28 02:01:00,59.2,57.2,29.93,WNW,290,0.0,0.0,93,0.00,,---,0.00,VWS V14.01,2013-04-28 07:01:00,
2013-04-28 02:05:00,59.2,57.2,29.93,WNW,290,0.0,0.0,93,0.00,,---,0.00,VWS V14.01,2013-04-28 07:05:00,
2013-04-28 02:06:00,59.2,57.2,29.93,WNW,290,0.0,0.0,93,0.00,,---,0.00,VWS V14.01,2013-04-28 07:06:00,
2013-04-28 02:10:00,59.2,57.2,29.93,WNW,290,0.0,0.0,93,0.00,,---,0.00,VWS V14.01,2013-04-28 07:10:00,
2013-04-28 02:11:00,59.2,57.2,29.93,WNW,290,0.0,0.0,93,0.00,,---,0.00,VWS V14.01,2013-04-28 07:11:00,
2013-04-28 02:15:00,59.1,57.1,29.92,WNW,290,0.0,0.0,93,0.00,,---,0.00,VWS V14.01,2013-04-28 07:15:00,
2013-04-28 02:16:00,59.1,57.1,29.92,WNW,290,0.0,0.0,93,0.00,,---,0.00,VWS V14.01,2013-04-28 07:16:00,
2013-04-28 02:17:00,59.1,57.1,29.92,WNW,290,0.0,0.0,93,0.00,,---,0.00,VWS V14.01,2013-04-28 07:17:00,
2013-04-28 02:20:00,59.1,57.1,29.92,WNW,290,0.0,0.0,93,0.00,,---,0.00,VWS V14.01,2013-04-28 07:20:00,
2013-04-28 02:21:00,59.1,57.1,29.92,WNW,290,0.0,0.0,93,0.00,,---,0.00,VWS V14.01,2013-04-28 07:21:00,
2013-04-28 02:22:00,59.1,57.1,29.92,WNW,290,0.0,0.0,93,0.00,,---,0.00,VWS V14.01,2013-04-28 07:22:00,
2013-04-28 02:25:00,59.1,57.1,29.92,WNW,290,0.0,1.0,93,0.00,,---,0.00,VWS V14.01,2013-04-28 07:25:00,
2013-04-28 02:26:00,59.1,57.1,29.92,WNW,290,0.0,1.0,93,0.00,,---,0.00,VWS V14.01,2013-04-28 07:26:00,
2013-04-28 02:27:00,59.1,57.1,29.92,WNW,290,0.0,1.0,93,0.00,,---,0.00,VWS V14.01,2013-04-28 07:27:00,
2013-04-28 02:31:00,59.0,57.0,29.92,WNW,290,1.0,1.0,93,0.00,,---,0.00,VWS V14.01,2013-04-28 07:31:00,
2013-04-28 02:32:00,59.0,57.0,29.92,WNW,290,0.0,1.0,93,0.00,,---,0.00,VWS V14.01,2013-04-28 07:32:00,
2013-04-28 02:36:00,59.0,57.0,29.92,West,268,3.0,3.0,93,0.00,,---,0.00,VWS V14.01,2013-04-28 07:36:00,
2013-04-28 02:37:00,59.0,57.0,29.92,West,273,2.0,3.0,93,0.00,,---,0.00,VWS V14.01,2013-04-28 07:37:00,
2013-04-28 02:41:00,59.0,57.0,29.92,West,279,3.0,4.0,93,0.00,,---,0.00,VWS V14.01,2013-04-28 07:41:00,
2013-04-28 02:42:00,59.0,57.0,29.93,WNW,290,2.0,4.0,93,0.00,,---,0.00,VWS V14.01,2013-04-28 07:42:00,
2013-04-28 02:46:00,59.0,57.0,29.93,WNW,294,3.0,4.0,93,0.00,,---,0.00,VWS V14.01,2013-04-28 07:46:00,
2013-04-28 02:47:00,59.0,57.0,29.93,WNW,294,2.0,4.0,93,0.00,,---,0.00,VWS V14.01,2013-04-28 07:47:00,
2013-04-28 02:48:00,59.0,57.0,29.93,WNW,283,2.0,4.0,93,0.00,,---,0.00,VWS V14.01,2013-04-28 07:48:00,
2013-04-28 02:51:00,59.0,57.0,29.92,WNW,285,3.0,4.0,93,0.00,,---,0.00,VWS V14.01,2013-04-28 07:51:00,
2013-04-28 02:52:00,59.0,57.0,29.93,West,277,3.0,4.0,93,0.00,,---,0.00,VWS V14.01,2013-04-28 07:52:00,
2013-04-28 02:53:00,59.0,57.0,29.93,WNW,290,3.0,4.0,93,0.00,,---,0.00,VWS V14.01,2013-04-28 07:53:00,
2013-04-28 02:56:00,59.0,57.0,29.93,West,268,1.0,4.0,93,0.00,,---,0.00,VWS V14.01,2013-04-28 07:56:00,
2013-04-28 02:57:00,59.0,57.0,29.93,West,268,2.0,4.0,93,0.00,,---,0.00,VWS V14.01,2013-04-28 07:57:00,
2013-04-28 02:58:00,59.0,57.0,29.93,West,269,1.0,4.0,93,0.00,,---,0.00,VWS V14.01,2013-04-28 07:58:00,
2013-04-28 03:01:00,59.0,57.0,29.93,WNW,292,4.0,5.0,93,0.00,,---,0.00,VWS V14.01,2013-04-28 08:01:00,
2013-04-28 03:02:00,59.0,57.0,29.93,WNW,290,3.0,5.0,93,0.00,,---,0.00,VWS V14.01,2013-04-28 08:02:00,
2013-04-28 03:03:00,58.9,56.9,29.93,WNW,285,2.0,5.0,93,0.00,,---,0.00,VWS V14.01,2013-04-28 08:03:00,
2013-04-28 03:07:00,58.8,56.8,29.92,WNW,290,1.0,5.0,93,0.00,,---,0.00,VWS V14.01,2013-04-28 08:07:00,
2013-04-28 03:08:00,58.8,56.8,29.92,WNW,288,2.0,5.0,93,0.00,,---,0.00,VWS V14.01,2013-04-28 08:08:00,
2013-04-28 03:12:00,58.8,56.8,29.92,WNW,292,3.0,5.0,93,0.00,,---,0.00,VWS V14.01,2013-04-28 08:12:00,
2013-04-28 03:13:00,58.7,56.7,29.93,WNW,290,2.0,5.0,93,0.00,,---,0.00,VWS V14.01,2013-04-28 08:13:00,
2013-04-28 03:17:00,58.7,56.7,29.93,WNW,288,3.0,4.0,93,0.00,,---,0.00,VWS V14.01,2013-04-28 08:17:00,
2013-04-28 03:18:00,58.7,56.7,29.92,WNW,291,3.0,4.0,93,0.00,,---,0.00,VWS V14.01,2013-04-28 08:18:00,
2013-04-28 03:22:00,58.7,56.7,29.93,West,280,2.0,4.0,93,0.00,,---,0.00,VWS V14.01,2013-04-28 08:22:00,
2013-04-28 03:23:00,58.7,56.7,29.93,West,280,1.0,4.0,93,0.00,,---,0.00,VWS V14.01,2013-04-28 08:23:00,
2013-04-28 03:27:00,58.7,56.7,29.93,West,278,2.0,4.0,93,0.00,,---,0.00,VWS V14.01,2013-04-28 08:27:00,
2013-04-28 03:28:00,58.6,56.6,29.93,West,259,2.0,4.0,93,0.00,,---,0.00,VWS V14.01,2013-04-28 08:28:00,
2013-04-28 03:29:00,58.6,56.6,29.93,WNW,288,2.0,4.0,93,0.00,,---,0.00,VWS V14.01,2013-04-28 08:29:00,
2013-04-28 03:32:00,58.6,56.6,29.93,WNW,289,3.0,3.0,93,0.00,,---,0.00,VWS V14.01,2013-04-28 08:32:00,
2013-04-28 03:33:00,58.6,56.6,29.93,West,281,2.0,3.0,93,0.00,,---,0.00,VWS V14.01,2013-04-28 08:33:00,
2013-04-28 03:37:00,58.6,56.6,29.93,WNW,283,2.0,4.0,93,0.00,,---,0.00,VWS V14.01,2013-04-28 08:37:00,
2013-04-28 03:38:00,58.6,56.6,29.93,WNW,287,2.0,4.0,93,0.00,,---,0.00,VWS V14.01,2013-04-28 08:38:00,
2013-04-28 03:39:00,58.6,56.6,29.93,WNW,287,2.0,4.0,93,0.00,,---,0.00,VWS V14.01,2013-04-28 08:39:00,
2013-04-28 03:42:00,58.5,56.5,29.93,WNW,292,3.0,4.0,93,0.00,,---,0.00,VWS V14.01,2013-04-28 08:42:00,
2013-04-28 03:43:00,58.5,56.5,29.93,WNW,290,3.0,4.0,93,0.00,,---,0.00,VWS V14.01,2013-04-28 08:43:00,
2013-04-28 03:44:00,58.5,56.5,29.93,WNW,292,0.0,4.0,93,0.00,,---,0.00,VWS V14.01,2013-04-28 08:44:00,
2013-04-28 03:47:00,58.6,56.6,29.93,West,280,3.0,4.0,93,0.00,,---,0.00,VWS V14.01,2013-04-28 08:47:00,
2013-04-28 03:48:00,58.6,56.3,29.93,WNW,283,2.0,4.0,92,0.00,,---,0.00,VWS V14.01,2013-04-28 08:48:00,
2013-04-28 03:49:00,58.6,56.6,29.93,West,276,2.0,4.0,93,0.00,,---,0.00,VWS V14.01,2013-04-28 08:49:00,
2013-04-28 03:52:00,58.6,56.3,29.93,WNW,285,1.0,4.0,92,0.00,,---,0.00,VWS V14.01,2013-04-28 08:52:00,
2013-04-28 03:53:00,58.6,56.3,29.93,WNW,285,1.0,4.0,92,0.00,,---,0.00,VWS V14.01,2013-04-28 08:53:00,
2013-04-28 03:54:00,58.6,56.3,29.93,WNW,284,1.0,4.0,92,0.00,,---,0.00,VWS V14.01,2013-04-28 08:54:00,
2013-04-28 03:57:00,58.6,56.6,29.93,West,278,2.0,4.0,93,0.00,,---,0.00,VWS V14.01,2013-04-28 08:57:00,
2013-04-28 03:58:00,58.6,56.6,29.93,West,281,2.0,4.0,93,0.00,,---,0.00,VWS V14.01,2013-04-28 08:58:00,
2013-04-28 03:59:00,58.6,56.6,29.93,WNW,283,3.0,4.0,93,0.00,,---,0.00,VWS V14.01,2013-04-28 08:59:00,
2013-04-28 04:02:00,58.6,56.3,29.93,WNW,291,3.0,4.0,92,0.00,,---,0.00,VWS V14.01,2013-04-28 09:02:00,
2013-04-28 04:03:00,58.6,56.3,29.93,WNW,287,2.0,4.0,92,0.00,,---,0.00,VWS V14.01,2013-04-28 09:03:00,
2013-04-28 04:04:00,58.6,56.3,29.93,WNW,287,1.0,4.0,92,0.00,,---,0.00,VWS V14.01,2013-04-28 09:04:00,
2013-04-28 04:07:00,58.6,56.3,29.93,WNW,285,0.0,4.0,92,0.00,,---,0.00,VWS V14.01,2013-04-28 09:07:00,
2013-04-28 04:09:00,58.6,56.3,29.93,WNW,285,0.0,4.0,92,0.00,,---,0.00,VWS V14.01,2013-04-28 09:09:00,
2013-04-28 04:12:00,58.6,56.3,29.93,WNW,285,0.0,4.0,92,0.00,,---,0.00,VWS V14.01,2013-04-28 09:12:00,
2013-04-28 04:14:00,58.6,56.3,29.93,WNW,285,0.0,4.0,92,0.00,,---,0.00,VWS V14.01,2013-04-28 09:14:00,
2013-04-28 04:18:00,58.6,56.3,29.93,West,266,2.0,3.0,92,0.00,,---,0.00,VWS V14.01,2013-04-28 09:18:00,
2013-04-28 04:19:00,58.5,56.2,29.93,WNW,285,3.0,3.0,92,0.00,,---,0.00,VWS V14.01,2013-04-28 09:19:00,
2013-04-28 04:23:00,58.6,56.3,29.93,WNW,287,0.0,3.0,92,0.00,,---,0.00,VWS V14.01,2013-04-28 09:23:00,
2013-04-28 04:24:00,58.5,56.2,29.93,WNW,288,2.0,3.0,92,0.00,,---,0.00,VWS V14.01,2013-04-28 09:24:00,
2013-04-28 04:25:00,58.5,56.2,29.93,WNW,289,0.0,3.0,92,0.00,,---,0.00,VWS V14.01,2013-04-28 09:25:00,
2013-04-28 04:28:00,58.5,56.2,29.93,WNW,290,3.0,5.0,92,0.00,,---,0.00,VWS V14.01,2013-04-28 09:28:00,
2013-04-28 04:29:00,58.4,56.1,29.93,WNW,288,4.0,5.0,92,0.00,,---,0.00,VWS V14.01,2013-04-28 09:29:00,
2013-04-28 04:30:00,58.4,56.1,29.93,WNW,290,4.0,5.0,92,0.00,,---,0.00,VWS V14.01,2013-04-28 09:30:00,
2013-04-28 04:33:00,58.4,55.8,29.93,West,278,4.0,7.0,91,0.00,,---,0.00,VWS V14.01,2013-04-28 09:33:00,
2013-04-28 04:34:00,58.4,55.8,29.93,WNW,297,5.0,7.0,91,0.00,,---,0.00,VWS V14.01,2013-04-28 09:34:00,
2013-04-28 04:35:00,58.4,55.5,29.93,WNW,287,2.0,7.0,90,0.00,,---,0.00,VWS V14.01,2013-04-28 09:35:00,
2013-04-28 04:38:00,58.4,55.5,29.93,WNW,285,5.0,7.0,90,0.00,,---,0.00,VWS V14.01,2013-04-28 09:38:00,
2013-04-28 04:39:00,58.4,55.5,29.93,WNW,290,4.0,7.0,90,0.00,,---,0.00,VWS V14.01,2013-04-28 09:39:00,
2013-04-28 04:40:00,58.4,55.5,29.93,West,281,3.0,7.0,90,0.00,,---,0.00,VWS V14.01,2013-04-28 09:40:00,
2013-04-28 04:43:00,58.3,55.4,29.93,WNW,290,4.0,7.0,90,0.00,,---,0.00,VWS V14.01,2013-04-28 09:43:00,
2013-04-28 04:44:00,58.3,55.4,29.93,WNW,289,3.0,7.0,90,0.00,,---,0.00,VWS V14.01,2013-04-28 09:44:00,
2013-04-28 04:45:00,58.3,55.4,29.93,WNW,289,2.0,7.0,90,0.00,,---,0.00,VWS V14.01,2013-04-28 09:45:00,
2013-04-28 04:49:00,58.3,55.4,29.93,WNW,290,3.0,5.0,90,0.00,,---,0.00,VWS V14.01,2013-04-28 09:49:00,
2013-04-28 04:50:00,58.2,55.3,29.93,WNW,296,4.0,5.0,90,0.00,,---,0.00,VWS V14.01,2013-04-28 09:50:00,
2013-04-28 04:54:00,58.2,55.3,29.93,WNW,287,2.0,5.0,90,0.00,,---,0.00,VWS V14.01,2013-04-28 09:54:00,
2013-04-28 04:55:00,58.2,55.3,29.93,West,278,2.0,5.0,90,0.00,,---,0.00,VWS V14.01,2013-04-28 09:55:00,
2013-04-28 04:59:00,58.2,55.0,29.94,West,278,3.0,5.0,89,0.00,,---,0.00,VWS V14.01,2013-04-28 09:59:00,
2013-04-28 05:00:00,58.2,55.0,29.94,WNW,292,3.0,5.0,89,0.00,,---,0.00,VWS V14.01,2013-04-28 10:00:00,
2013-04-28 05:04:00,58.2,55.0,29.94,WNW,299,5.0,5.0,89,0.00,,---,0.00,VWS V14.01,2013-04-28 10:04:00,
2013-04-28 05:05:00,58.2,55.0,29.93,West,278,3.0,5.0,89,0.00,,---,0.00,VWS V14.01,2013-04-28 10:05:00,
2013-04-28 05:09:00,58.2,55.0,29.93,West,280,0.0,5.0,89,0.00,,---,0.00,VWS V14.01,2013-04-28 10:09:00,
2013-04-28 05:10:00,58.2,55.0,29.93,WNW,282,1.0,5.0,89,0.00,,---,0.00,VWS V14.01,2013-04-28 10:10:00,
2013-04-28 05:14:00,58.1,55.2,29.93,WNW,285,0.0,5.0,90,0.00,,---,0.00,VWS V14.01,2013-04-28 10:14:00,
2013-04-28 05:15:00,58.2,55.3,29.94,WNW,288,4.0,6.0,90,0.00,,---,0.00,VWS V14.01,2013-04-28 10:15:00,
2013-04-28 05:16:00,58.1,55.2,29.93,WNW,288,3.0,3.0,90,0.00,,---,0.00,VWS V14.01,2013-04-28 10:16:00,
2013-04-28 05:19:00,58.1,54.9,29.94,WNW,287,2.0,5.0,89,0.00,,---,0.00,VWS V14.01,2013-04-28 10:19:00,
2013-04-28 05:20:00,58.1,55.2,29.94,WNW,292,0.0,5.0,90,0.00,,---,0.00,VWS V14.01,2013-04-28 10:20:00,
2013-04-28 05:21:00,58.0,55.1,29.94,WNW,292,0.0,5.0,90,0.00,,---,0.00,VWS V14.01,2013-04-28 10:21:00,
2013-04-28 05:24:00,58.0,55.1,29.94,WNW,287,3.0,3.0,90,0.00,,---,0.00,VWS V14.01,2013-04-28 10:24:00,
2013-04-28 05:25:00,58.0,55.1,29.94,WNW,285,2.0,3.0,90,0.00,,---,0.00,VWS V14.01,2013-04-28 10:25:00,
2013-04-28 05:26:00,58.0,55.1,29.94,WNW,289,2.0,4.0,90,0.00,,---,0.00,VWS V14.01,2013-04-28 10:26:00,
2013-04-28 05:29:00,58.0,55.1,29.94,WNW,285,2.0,4.0,90,0.00,,---,0.00,VWS V14.01,2013-04-28 10:29:00,
2013-04-28 05:30:00,58.0,55.1,29.94,WNW,292,3.0,4.0,90,0.00,,---,0.00,VWS V14.01,2013-04-28 10:30:00,
2013-04-28 05:31:00,58.0,55.1,29.94,WNW,290,2.0,3.0,90,0.00,,---,0.00,VWS V14.01,2013-04-28 10:31:00,
2013-04-28 05:35:00,58.0,55.1,29.94,WNW,290,4.0,6.0,90,0.00,,---,0.00,VWS V14.01,2013-04-28 10:35:00,
2013-04-28 05:36:00,58.0,55.1,29.94,WNW,290,1.0,6.0,90,0.00,,---,0.00,VWS V14.01,2013-04-28 10:36:00,
2013-04-28 05:40:00,58.0,55.1,29.94,WNW,285,0.0,6.0,90,0.00,,---,0.00,VWS V14.01,2013-04-28 10:40:00,
2013-04-28 05:41:00,58.0,55.1,29.94,WNW,285,0.0,6.0,90,0.00,,---,0.00,VWS V14.01,2013-04-28 10:41:00,
2013-04-28 05:45:00,57.9,55.0,29.94,WNW,292,2.0,6.0,90,0.00,,---,0.00,VWS V14.01,2013-04-28 10:45:00,
2013-04-28 05:46:00,57.9,55.0,29.94,WNW,285,2.0,3.0,90,0.00,,---,0.00,VWS V14.01,2013-04-28 10:46:00,
2013-04-28 05:47:00,57.9,55.0,29.94,WNW,288,2.0,4.0,90,0.00,,---,0.00,VWS V14.01,2013-04-28 10:47:00,
2013-04-28 05:50:00,57.9,55.0,29.94,West,276,2.0,4.0,90,0.00,,---,0.00,VWS V14.01,2013-04-28 10:50:00,
2013-04-28 05:51:00,57.9,55.0,29.94,WNW,283,3.0,4.0,90,0.00,,---,0.00,VWS V14.01,2013-04-28 10:51:00,
2013-04-28 05:52:00,57.9,55.0,29.94,West,271,2.0,4.0,90,0.00,,---,0.00,VWS V14.01,2013-04-28 10:52:00,
2013-04-28 05:56:00,57.9,55.0,29.94,West,280,0.0,4.0,90,0.00,,---,0.00,VWS V14.01,2013-04-28 10:56:00,
2013-04-28 05:57:00,57.9,55.3,29.94,WNW,282,2.0,4.0,91,0.00,,---,0.00,VWS V14.01,2013-04-28 10:57:00,
2013-04-28 06:01:00,57.9,55.3,29.94,WNW,285,0.0,0.0,91,0.00,,---,0.00,VWS V14.01,2013-04-28 11:01:00,
2013-04-28 06:02:00,57.9,55.3,29.94,WNW,285,0.0,0.0,91,0.00,,---,0.00,VWS V14.01,2013-04-28 11:02:00,
2013-04-28 06:06:00,57.9,55.3,29.94,WNW,285,0.0,0.0,91,0.00,,---,0.00,VWS V14.01,2013-04-28 11:06:00,
2013-04-28 06:07:00,57.9,55.3,29.94,WNW,285,0.0,0.0,91,0.00,,---,0.00,VWS V14.01,2013-04-28 11:07:00,
2013-04-28 06:11:00,57.9,55.3,29.94,West,276,1.0,3.0,91,0.00,,---,0.00,VWS V14.01,2013-04-28 11:11:00,
2013-04-28 06:12:00,57.9,55.3,29.94,West,276,1.0,3.0,91,0.00,,---,0.00,VWS V14.01,2013-04-28 11:12:00,
2013-04-28 06:17:00,57.9,55.3,29.95,West,276,0.0,1.0,91,0.00,,---,0.00,VWS V14.01,2013-04-28 11:17:00,
2013-04-28 06:18:00,57.9,55.3,29.95,West,276,0.0,1.0,91,0.00,,---,0.00,VWS V14.01,2013-04-28 11:18:00,
2013-04-28 06:22:00,57.9,55.3,29.95,West,271,2.0,3.0,91,0.00,,---,0.00,VWS V14.01,2013-04-28 11:22:00,
2013-04-28 06:23:00,57.9,55.3,29.95,West,271,2.0,3.0,91,0.00,,---,0.00,VWS V14.01,2013-04-28 11:23:00,
2013-04-28 06:27:00,57.9,55.3,29.95,West,273,2.0,3.0,91,0.00,,---,0.00,VWS V14.01,2013-04-28 11:27:00,
2013-04-28 06:28:00,57.9,55.3,29.95,West,278,2.0,3.0,91,0.00,,---,0.00,VWS V14.01,2013-04-28 11:28:00,
2013-04-28 06:32:00,57.9,55.0,29.95,West,275,2.0,3.0,90,0.00,,---,0.00,VWS V14.01,2013-04-28 11:32:00,
2013-04-28 06:33:00,57.9,55.3,29.96,West,274,1.0,3.0,91,0.00,,---,0.00,VWS V14.01,2013-04-28 11:33:00,
2013-04-28 06:37:00,57.9,55.3,29.96,West,276,2.0,3.0,91,0.00,,---,0.00,VWS V14.01,2013-04-28 11:37:00,
2013-04-28 06:38:00,57.9,55.3,29.96,West,274,1.0,3.0,91,0.00,,---,0.00,VWS V14.01,2013-04-28 11:38:00,
2013-04-28 06:39:00,58.0,55.4,29.96,West,274,1.0,3.0,91,0.00,,---,0.00,VWS V14.01,2013-04-28 11:39:00,
2013-04-28 06:42:00,57.9,55.0,29.96,WNW,286,2.0,4.0,90,0.00,,---,0.00,VWS V14.01,2013-04-28 11:42:00,
2013-04-28 06:43:00,58.0,55.1,29.96,WNW,285,1.0,4.0,90,0.00,,---,0.00,VWS V14.01,2013-04-28 11:43:00,
2013-04-28 06:44:00,58.0,55.4,29.96,WNW,285,2.0,4.0,91,0.00,,---,0.00,VWS V14.01,2013-04-28 11:44:00,
2013-04-28 06:47:00,58.0,55.4,29.96,WNW,285,1.0,2.0,91,0.00,,---,0.00,VWS V14.01,2013-04-28 11:47:00,
2013-04-28 06:48:00,58.0,55.4,29.96,WNW,285,1.0,2.0,91,0.00,,---,0.00,VWS V14.01,2013-04-28 11:48:00,
2013-04-28 06:49:00,58.0,55.4,29.96,WNW,285,1.0,2.0,91,0.00,,---,0.00,VWS V14.01,2013-04-28 11:49:00,
2013-04-28 06:53:00,58.0,55.4,29.96,West,270,1.0,2.0,91,0.00,,---,0.00,VWS V14.01,2013-04-28 11:53:00,
2013-04-28 06:54:00,58.0,55.4,29.96,West,270,0.0,2.0,91,0.00,,---,0.00,VWS V14.01,2013-04-28 11:54:00,
2013-04-28 06:58:00,58.0,55.4,29.96,West,271,0.0,2.0,91,0.00,,---,0.00,VWS V14.01,2013-04-28 11:58:00,
2013-04-28 06:59:00,58.0,55.4,29.96,West,270,0.0,2.0,91,0.00,,---,0.00,VWS V14.01,2013-04-28 11:59:00,
2013-04-28 07:03:00,58.1,55.5,29.95,West,270,0.0,0.0,91,0.00,,---,0.00,VWS V14.01,2013-04-28 12:03:00,
2013-04-28 07:04:00,58.1,55.5,29.96,West,270,0.0,0.0,91,0.00,,---,0.00,VWS V14.01,2013-04-28 12:04:00,
2013-04-28 07:08:00,58.2,55.6,29.96,West,271,0.0,0.0,91,0.00,,---,0.00,VWS V14.01,2013-04-28 12:08:00,
2013-04-28 07:09:00,58.2,55.6,29.95,West,271,0.0,0.0,91,0.00,,---,0.00,VWS V14.01,2013-04-28 12:09:00,
2013-04-28 07:13:00,58.2,55.6,29.95,West,270,0.0,0.0,91,0.00,,---,0.00,VWS V14.01,2013-04-28 12:13:00,
2013-04-28 07:14:00,58.2,55.6,29.95,West,270,0.0,0.0,91,0.00,,---,0.00,VWS V14.01,2013-04-28 12:14:00,
2013-04-28 07:18:00,58.3,55.7,29.95,West,270,1.0,1.0,91,0.00,,---,0.00,VWS V14.01,2013-04-28 12:18:00,
2013-04-28 07:19:00,58.3,55.7,29.95,West,271,1.0,1.0,91,0.00,,---,0.00,VWS V14.01,2013-04-28 12:19:00,
2013-04-28 07:23:00,58.4,55.8,29.96,West,271,0.0,1.0,91,0.00,,---,0.00,VWS V14.01,2013-04-28 12:23:00,
2013-04-28 07:24:00,58.4,55.8,29.96,West,271,1.0,1.0,91,0.00,,---,0.00,VWS V14.01,2013-04-28 12:24:00,
2013-04-28 07:25:00,58.4,55.5,29.96,West,278,2.0,2.0,90,0.00,,---,0.00,VWS V14.01,2013-04-28 12:25:00,
2013-04-28 07:28:00,58.5,55.6,29.96,West,278,2.0,2.0,90,0.00,,---,0.00,VWS V14.01,2013-04-28 12:28:00,
2013-04-28 07:29:00,58.5,55.6,29.96,West,279,1.0,2.0,90,0.00,,---,0.00,VWS V14.01,2013-04-28 12:29:00,
2013-04-28 07:30:00,58.5,55.6,29.96,West,278,0.0,2.0,90,0.00,,---,0.00,VWS V14.01,2013-04-28 12:30:00,
2013-04-28 07:33:00,58.5,55.6,29.96,West,279,0.0,1.0,90,0.00,,---,0.00,VWS V14.01,2013-04-28 12:33:00,
2013-04-28 07:34:00,58.5,55.6,29.96,West,279,0.0,1.0,90,0.00,,---,0.00,VWS V14.01,2013-04-28 12:34:00,
2013-04-28 07:35:00,58.6,55.7,29.96,WNW,289,2.0,2.0,90,0.00,,---,0.00,VWS V14.01,2013-04-28 12:35:00,
2013-04-28 07:38:00,58.6,55.7,29.96,West,260,0.0,2.0,90,0.00,,---,0.00,VWS V14.01,2013-04-28 12:38:00,
2013-04-28 07:39:00,58.6,55.7,29.96,West,261,0.0,2.0,90,0.00,,---,0.00,VWS V14.01,2013-04-28 12:39:00,
2013-04-28 07:40:00,58.7,55.5,29.96,West,278,2.0,2.0,89,0.00,,---,0.00,VWS V14.01,2013-04-28 12:40:00,
2013-04-28 07:43:00,58.7,55.5,29.96,West,269,0.0,2.0,89,0.00,,---,0.00,VWS V14.01,2013-04-28 12:43:00,
2013-04-28 07:44:00,58.7,55.5,29.96,West,269,0.0,2.0,89,0.00,,---,0.00,VWS V14.01,2013-04-28 12:44:00,
2013-04-28 07:45:00,58.7,55.5,29.96,West,278,2.0,2.0,89,0.00,,---,0.00,VWS V14.01,2013-04-28 12:45:00,
2013-04-28 07:48:00,58.8,55.6,29.96,West,273,0.0,2.0,89,0.00,,---,0.00,VWS V14.01,2013-04-28 12:48:00,
2013-04-28 07:49:00,58.8,55.9,29.96,West,273,0.0,2.0,90,0.00,,---,0.00,VWS V14.01,2013-04-28 12:49:00,
2013-04-28 07:50:00,58.8,55.9,29.96,West,273,0.0,2.0,90,0.00,,---,0.00,VWS V14.01,2013-04-28 12:50:00,
2013-04-28 07:53:00,59.0,56.1,29.96,West,273,0.0,2.0,90,0.00,,---,0.00,VWS V14.01,2013-04-28 12:53:00,
2013-04-28 07:54:00,59.0,56.1,29.96,West,273,0.0,2.0,90,0.00,,---,0.00,VWS V14.01,2013-04-28 12:54:00,
2013-04-28 07:55:00,59.1,56.2,29.96,West,273,0.0,2.0,90,0.00,,---,0.00,VWS V14.01,2013-04-28 12:55:00,
2013-04-28 07:59:00,59.2,56.0,29.96,West,273,0.0,2.0,89,0.00,,---,0.00,VWS V14.01,2013-04-28 12:59:00,
2013-04-28 08:00:00,59.2,56.0,29.96,West,273,0.0,2.0,89,0.00,,---,0.00,VWS V14.01,2013-04-28 13:00:00,
2013-04-28 08:04:00,59.4,56.2,29.96,West,273,0.0,0.0,89,0.00,,---,0.00,VWS V14.01,2013-04-28 13:04:00,
2013-04-28 08:05:00,59.4,56.2,29.96,West,273,0.0,0.0,89,0.00,,---,0.00,VWS V14.01,2013-04-28 13:05:00,
2013-04-28 08:06:00,59.4,55.8,29.96,West,273,0.0,0.0,88,0.00,,---,0.00,VWS V14.01,2013-04-28 13:06:00,
2013-04-28 08:09:00,59.6,56.4,29.96,West,273,0.0,0.0,89,0.00,,---,0.00,VWS V14.01,2013-04-28 13:09:00,
2013-04-28 08:10:00,59.6,56.4,29.96,West,273,0.0,0.0,89,0.00,,---,0.00,VWS V14.01,2013-04-28 13:10:00,
2013-04-28 08:11:00,59.7,56.5,29.96,West,273,0.0,0.0,89,0.00,,---,0.00,VWS V14.01,2013-04-28 13:11:00,
2013-04-28 08:14:00,59.8,56.2,29.96,West,273,0.0,0.0,88,0.00,,---,0.00,VWS V14.01,2013-04-28 13:14:00,
2013-04-28 08:15:00,59.9,56.3,29.96,West,273,0.0,0.0,88,0.00,,---,0.00,VWS V14.01,2013-04-28 13:15:00,
2013-04-28 08:16:00,59.9,56.3,29.96,West,273,0.0,0.0,88,0.00,,---,0.00,VWS V14.01,2013-04-28 13:16:00,
2013-04-28 08:19:00,60.1,56.5,29.96,West,273,0.0,0.0,88,0.00,,---,0.00,VWS V14.01,2013-04-28 13:19:00,
2013-04-28 08:20:00,60.2,56.6,29.96,West,273,0.0,0.0,88,0.00,,---,0.00,VWS V14.01,2013-04-28 13:20:00,
2013-04-28 08:21:00,60.2,56.6,29.96,West,273,0.0,0.0,88,0.00,,---,0.00,VWS V14.01,2013-04-28 13:21:00,
2013-04-28 08:24:00,60.3,56.4,29.96,West,273,0.0,0.0,87,0.00,,---,0.00,VWS V14.01,2013-04-28 13:24:00,
2013-04-28 08:25:00,60.4,56.5,29.96,West,273,0.0,0.0,87,0.00,,---,0.00,VWS V14.01,2013-04-28 13:25:00,
2013-04-28 08:26:00,60.5,56.6,29.96,West,273,0.0,0.0,87,0.00,,---,0.00,VWS V14.01,2013-04-28 13:26:00,
2013-04-28 08:29:00,60.6,56.7,29.96,West,273,0.0,0.0,87,0.00,,---,0.00,VWS V14.01,2013-04-28 13:29:00,
2013-04-28 08:30:00,60.6,56.7,29.96,West,273,0.0,0.0,87,0.00,,---,0.00,VWS V14.01,2013-04-28 13:30:00,
2013-04-28 08:31:00,60.7,56.5,29.96,West,273,0.0,0.0,86,0.00,,---,0.00,VWS V14.01,2013-04-28 13:31:00,
2013-04-28 08:34:00,60.8,56.6,29.96,NW,311,0.0,6.0,86,0.00,,---,0.00,VWS V14.01,2013-04-28 13:34:00,
2013-04-28 08:35:00,60.8,56.6,29.96,NW,311,0.0,6.0,86,0.00,,---,0.00,VWS V14.01,2013-04-28 13:35:00,
2013-04-28 08:36:00,60.8,56.6,29.96,NW,311,0.0,6.0,86,0.00,,---,0.00,VWS V14.01,2013-04-28 13:36:00,
2013-04-28 08:39:00,61.1,56.9,29.96,NW,310,0.0,6.0,86,0.00,,---,0.00,VWS V14.01,2013-04-28 13:39:00,
2013-04-28 08:40:00,61.1,56.6,29.96,NW,309,0.0,6.0,85,0.00,,---,0.00,VWS V14.01,2013-04-28 13:40:00,
2013-04-28 08:41:00,61.2,56.7,29.96,NW,310,0.0,6.0,85,0.00,,---,0.00,VWS V14.01,2013-04-28 13:41:00,
2013-04-28 08:42:00,61.2,56.7,29.96,NW,310,0.0,6.0,85,0.00,,---,0.00,VWS V14.01,2013-04-28 13:42:00,
2013-04-28 08:44:00,61.5,56.6,29.96,NW,310,0.0,6.0,84,0.00,,---,0.00,VWS V14.01,2013-04-28 13:44:00,
2013-04-28 08:45:00,61.6,56.7,29.96,NW,306,0.0,6.0,84,0.00,,---,0.00,VWS V14.01,2013-04-28 13:45:00,
2013-04-28 08:46:00,61.6,56.7,29.96,NW,305,0.0,0.0,84,0.00,,---,0.00,VWS V14.01,2013-04-28 13:46:00,
2013-04-28 08:47:00,61.7,56.8,29.97,NW,305,0.0,0.0,84,0.00,,---,0.00,VWS V14.01,2013-04-28 13:47:00,
2013-04-28 08:50:00,61.9,57.3,29.96,WNW,290,0.0,5.0,85,0.00,,---,0.00,VWS V14.01,2013-04-28 13:50:00,
2013-04-28 08:51:00,62.0,57.5,29.96,WNW,290,0.0,5.0,85,0.00,,---,0.00,VWS V14.01,2013-04-28 13:51:00,
2013-04-28 08:52:00,62.1,57.5,29.96,WNW,290,0.0,5.0,85,0.00,,---,0.00,VWS V14.01,2013-04-28 13:52:00,
2013-04-28 08:55:00,62.3,57.1,29.97,West,269,1.0,5.0,83,0.00,,---,0.00,VWS V14.01,2013-04-28 13:55:00,
2013-04-28 08:56:00,62.3,57.1,29.97,West,269,0.0,5.0,83,0.00,,---,0.00,VWS V14.01,2013-04-28 13:56:00,
2013-04-28 08:57:00,62.4,57.2,29.97,West,276,6.0,6.0,83,0.00,,---,0.00,VWS V14.01,2013-04-28 13:57:00,
2013-04-28 09:00:00,62.4,57.2,29.97,WNW,288,5.0,6.0,83,0.00,,---,0.00,VWS V14.01,2013-04-28 14:00:00,
2013-04-28 09:01:00,62.4,56.8,29.96,West,280,5.0,6.0,82,0.00,,---,0.00,VWS V14.01,2013-04-28 14:01:00,
2013-04-28 09:02:00,62.3,56.4,29.96,WNW,288,3.0,6.0,81,0.00,,---,0.00,VWS V14.01,2013-04-28 14:02:00,
2013-04-28 09:05:00,62.3,57.1,29.96,WNW,285,0.0,6.0,83,0.00,,---,0.00,VWS V14.01,2013-04-28 14:05:00,
2013-04-28 09:06:00,62.4,57.2,29.97,WNW,285,0.0,6.0,83,0.00,,---,0.00,VWS V14.01,2013-04-28 14:06:00,
2013-04-28 09:07:00,62.5,56.9,29.96,WNW,286,0.0,6.0,82,0.00,,---,0.00,VWS V14.01,2013-04-28 14:07:00,
2013-04-28 09:10:00,62.7,57.1,29.96,WNW,290,0.0,6.0,82,0.00,,---,0.00,VWS V14.01,2013-04-28 14:10:00,
2013-04-28 09:11:00,62.8,57.2,29.96,West,271,1.0,6.0,82,0.00,,---,0.00,VWS V14.01,2013-04-28 14:11:00,
2013-04-28 09:12:00,62.8,57.2,29.97,West,271,0.0,6.0,82,0.00,,---,0.00,VWS V14.01,2013-04-28 14:12:00,
2013-04-28 09:15:00,63.1,57.2,29.96,West,271,0.0,6.0,81,0.00,,---,0.00,VWS V14.01,2013-04-28 14:15:00,
2013-04-28 09:16:00,63.2,57.3,29.97,West,271,0.0,0.0,81,0.00,,---,0.00,VWS V14.01,2013-04-28 14:16:00,
2013-04-28 09:17:00,63.3,57.4,29.97,West,270,0.0,1.0,81,0.00,,---,0.00,VWS V14.01,2013-04-28 14:17:00,
2013-04-28 09:20:00,63.6,57.3,29.97,West,276,1.0,2.0,80,0.00,,---,0.00,VWS V14.01,2013-04-28 14:20:00,
2013-04-28 09:21:00,63.7,57.4,29.97,WNW,291,2.0,2.0,80,0.00,,---,0.00,VWS V14.01,2013-04-28 14:21:00,
2013-04-28 09:22:00,63.7,57.1,29.96,WNW,296,3.0,4.0,79,0.00,,---,0.00,VWS V14.01,2013-04-28 14:22:00,
2013-04-28 09:25:00,63.4,57.1,29.97,WNW,292,1.0,4.0,80,0.00,,---,0.00,VWS V14.01,2013-04-28 14:25:00,
2013-04-28 09:26:00,63.3,57.0,29.96,WNW,293,0.0,4.0,80,0.00,,---,0.00,VWS V14.01,2013-04-28 14:26:00,
2013-04-28 09:27:00,63.4,57.1,29.96,WNW,292,1.0,4.0,80,0.00,,---,0.00,VWS V14.01,2013-04-28 14:27:00,
2013-04-28 09:28:00,63.4,57.5,29.96,WNW,292,0.0,4.0,81,0.00,,---,0.00,VWS V14.01,2013-04-28 14:28:00,
2013-04-28 09:30:00,63.6,57.3,29.96,WNW,292,0.0,4.0,80,0.00,,---,0.00,VWS V14.01,2013-04-28 14:30:00,
2013-04-28 09:31:00,63.7,57.4,29.96,WNW,292,0.0,0.0,80,0.00,,---,0.00,VWS V14.01,2013-04-28 14:31:00,
2013-04-28 09:32:00,63.9,57.6,29.96,WNW,292,0.0,0.0,80,0.00,,---,0.00,VWS V14.01,2013-04-28 14:32:00,
2013-04-28 09:33:00,64.1,57.8,29.96,West,276,5.0,5.0,80,0.00,,---,0.00,VWS V14.01,2013-04-28 14:33:00,
2013-04-28 09:35:00,64.3,57.7,29.96,WNW,286,1.0,5.0,79,0.00,,---,0.00,VWS V14.01,2013-04-28 14:35:00,
2013-04-28 09:37:00,64.4,57.4,29.96,West,276,0.0,5.0,78,0.00,,---,0.00,VWS V14.01,2013-04-28 14:37:00,
2013-04-28 09:38:00,64.6,57.6,29.96,West,273,2.0,5.0,78,0.00,,---,0.00,VWS V14.01,2013-04-28 14:38:00,
2013-04-28 09:40:00,64.8,57.4,29.96,West,273,0.0,5.0,77,0.00,,---,0.00,VWS V14.01,2013-04-28 14:40:00,
2013-04-28 09:42:00,64.9,57.5,29.96,West,275,0.0,5.0,77,0.00,,---,0.00,VWS V14.01,2013-04-28 14:42:00,
2013-04-28 09:43:00,65.0,57.3,29.96,West,275,0.0,5.0,76,0.00,,---,0.00,VWS V14.01,2013-04-28 14:43:00,
2013-04-28 09:45:00,65.2,57.1,29.96,West,274,0.0,0.0,75,0.00,,---,0.00,VWS V14.01,2013-04-28 14:45:00,
2013-04-28 09:47:00,65.3,57.2,29.96,NW,304,1.0,4.0,75,0.00,,---,0.00,VWS V14.01,2013-04-28 14:47:00,
2013-04-28 09:48:00,65.4,57.3,29.96,NW,304,0.0,4.0,75,0.00,,---,0.00,VWS V14.01,2013-04-28 14:48:00,
2013-04-28 09:49:00,65.4,57.3,29.96,NW,304,0.0,4.0,75,0.00,,---,0.00,VWS V14.01,2013-04-28 14:49:00,
2013-04-28 09:51:00,65.4,57.3,29.96,NW,307,0.0,4.0,75,0.00,,---,0.00,VWS V14.01,2013-04-28 14:51:00,
2013-04-28 09:52:00,65.4,57.3,29.96,NW,307,0.0,4.0,75,0.00,,---,0.00,VWS V14.01,2013-04-28 14:52:00,
2013-04-28 09:53:00,65.4,57.3,29.96,NW,310,7.0,7.0,75,0.00,,---,0.00,VWS V14.01,2013-04-28 14:53:00,
2013-04-28 09:54:00,65.4,57.3,29.96,NW,312,0.0,7.0,75,0.00,,---,0.00,VWS V14.01,2013-04-28 14:54:00,
2013-04-28 09:56:00,65.4,57.7,29.95,NW,312,0.0,7.0,76,0.00,,---,0.00,VWS V14.01,2013-04-28 14:56:00,
2013-04-28 09:57:00,65.5,57.4,29.95,NW,310,1.0,7.0,75,0.00,,---,0.00,VWS V14.01,2013-04-28 14:57:00,
2013-04-28 09:58:00,65.5,57.4,29.95,NW,309,1.0,7.0,75,0.00,,---,0.00,VWS V14.01,2013-04-28 14:58:00,
2013-04-28 09:59:00,65.6,57.8,29.95,NW,310,0.0,7.0,76,0.00,,---,0.00,VWS V14.01,2013-04-28 14:59:00,
2013-04-28 10:01:00,65.8,58.0,29.96,WNW,301,3.0,3.0,76,0.00,,---,0.00,VWS V14.01,2013-04-28 15:01:00,
2013-04-28 10:02:00,65.7,57.9,29.96,West,279,1.0,4.0,76,0.00,,---,0.00,VWS V14.01,2013-04-28 15:02:00,
2013-04-28 10:03:00,65.7,57.9,29.96,West,278,0.0,4.0,76,0.00,,---,0.00,VWS V14.01,2013-04-28 15:03:00,
2013-04-28 10:04:00,65.7,57.9,29.96,West,278,1.0,4.0,76,0.00,,---,0.00,VWS V14.01,2013-04-28 15:04:00,
2013-04-28 10:06:00,65.6,57.5,29.96,West,278,0.0,4.0,75,0.00,,---,0.00,VWS V14.01,2013-04-28 15:06:00,
2013-04-28 10:07:00,65.6,57.1,29.96,West,278,0.0,4.0,74,0.00,,---,0.00,VWS V14.01,2013-04-28 15:07:00,
2013-04-28 10:08:00,65.5,57.0,29.96,West,279,0.0,4.0,74,0.00,,---,0.00,VWS V14.01,2013-04-28 15:08:00,
2013-04-28 10:09:00,65.5,57.0,29.96,West,279,0.0,4.0,74,0.00,,---,0.00,VWS V14.01,2013-04-28 15:09:00,
2013-04-28 10:11:00,65.4,56.9,29.96,West,279,0.0,4.0,74,0.00,,---,0.00,VWS V14.01,2013-04-28 15:11:00,
2013-04-28 10:12:00,65.3,57.2,29.95,West,278,0.0,4.0,75,0.00,,---,0.00,VWS V14.01,2013-04-28 15:12:00,
2013-04-28 10:13:00,65.2,57.1,29.95,West,278,0.0,4.0,75,0.00,,---,0.00,VWS V14.01,2013-04-28 15:13:00,
2013-04-28 10:14:00,65.2,57.1,29.95,West,278,0.0,4.0,75,0.00,,---,0.00,VWS V14.01,2013-04-28 15:14:00,
2013-04-28 10:16:00,65.2,57.1,29.95,WNW,287,5.0,5.0,75,0.00,,---,0.00,VWS V14.01,2013-04-28 15:16:00,
2013-04-28 10:17:00,65.0,57.3,29.95,West,269,1.0,5.0,76,0.00,,---,0.00,VWS V14.01,2013-04-28 15:17:00,
2013-04-28 10:18:00,64.9,57.2,29.95,West,269,1.0,5.0,76,0.00,,---,0.00,VWS V14.01,2013-04-28 15:18:00,
2013-04-28 10:19:00,64.8,57.1,29.95,West,269,0.0,5.0,76,0.00,,---,0.00,VWS V14.01,2013-04-28 15:19:00,
2013-04-28 10:21:00,64.7,57.0,29.95,West,269,0.0,5.0,76,0.00,,---,0.00,VWS V14.01,2013-04-28 15:21:00,
2013-04-28 10:22:00,64.6,56.9,29.95,West,269,0.0,5.0,76,0.00,,---,0.00,VWS V14.01,2013-04-28 15:22:00,
2013-04-28 10:23:00,64.6,56.9,29.95,West,269,0.0,5.0,76,0.00,,---,0.00,VWS V14.01,2013-04-28 15:23:00,
2013-04-28 10:24:00,64.6,56.9,29.95,West,269,0.0,5.0,76,0.00,,---,0.00,VWS V14.01,2013-04-28 15:24:00,
2013-04-28 10:25:00,64.6,56.9,29.95,West,269,0.0,5.0,76,0.00,,---,0.00,VWS V14.01,2013-04-28 15:25:00,
2013-04-28 10:26:00,64.6,56.9,29.95,West,269,0.0,5.0,76,0.00,,---,0.00,VWS V14.01,2013-04-28 15:26:00,
2013-04-28 10:27:00,64.7,57.0,29.95,WNW,283,1.0,5.0,76,0.00,,---,0.00,VWS V14.01,2013-04-28 15:27:00,
2013-04-28 10:29:00,64.6,56.9,29.95,WNW,292,1.0,5.0,76,0.00,,---,0.00,VWS V14.01,2013-04-28 15:29:00,
2013-04-28 10:30:00,64.5,56.8,29.95,WNW,291,0.0,5.0,76,0.00,,---,0.00,VWS V14.01,2013-04-28 15:30:00,
2013-04-28 10:31:00,64.4,56.7,29.95,WNW,292,0.0,1.0,76,0.00,,---,0.00,VWS V14.01,2013-04-28 15:31:00,
2013-04-28 10:33:00,64.3,56.6,29.95,WNW,292,0.0,1.0,76,0.00,,---,0.00,VWS V14.01,2013-04-28 15:33:00,
2013-04-28 10:34:00,64.3,56.6,29.95,WNW,292,0.0,1.0,76,0.00,,---,0.00,VWS V14.01,2013-04-28 15:34:00,
2013-04-28 10:35:00,64.3,56.6,29.95,WNW,291,1.0,1.0,76,0.00,,---,0.00,VWS V14.01,2013-04-28 15:35:00,
2013-04-28 10:37:00,64.2,56.8,29.95,ENE,57,0.0,2.0,77,0.00,,---,0.00,VWS V14.01,2013-04-28 15:37:00,
2013-04-28 10:38:00,64.1,56.8,29.95,ENE,58,0.0,2.0,77,0.00,,---,0.00,VWS V14.01,2013-04-28 15:38:00,
2013-04-28 10:39:00,64.1,56.8,29.95,ENE,58,0.0,2.0,77,0.00,,---,0.00,VWS V14.01,2013-04-28 15:39:00,
2013-04-28 10:40:00,64.1,56.8,29.95,NE,34,1.0,2.0,77,0.00,,---,0.00,VWS V14.01,2013-04-28 15:40:00,
2013-04-28 10:41:00,64.1,56.8,29.95,NNW,340,1.0,2.0,77,0.00,,---,0.00,VWS V14.01,2013-04-28 15:41:00,
2013-04-28 10:42:00,64.1,56.8,29.95,NNW,340,0.0,2.0,77,0.00,,---,0.00,VWS V14.01,2013-04-28 15:42:00,
2013-04-28 10:43:00,64.1,56.8,29.95,WNW,292,4.0,8.0,77,0.00,,---,0.00,VWS V14.01,2013-04-28 15:43:00,
2013-04-28 10:44:00,64.1,56.8,29.95,NW,326,0.0,8.0,77,0.00,,---,0.00,VWS V14.01,2013-04-28 15:44:00,
2013-04-28 10:45:00,64.1,56.8,29.95,NW,326,0.0,8.0,77,0.00,,---,0.00,VWS V14.01,2013-04-28 15:45:00,
2013-04-28 10:46:00,64.1,56.8,29.95,NNW,327,0.0,1.0,77,0.00,,---,0.00,VWS V14.01,2013-04-28 15:46:00,
2013-04-28 10:47:00,64.1,56.8,29.95,NW,326,0.0,1.0,77,0.00,,---,0.00,VWS V14.01,2013-04-28 15:47:00,
2013-04-28 10:48:00,64.3,57.0,29.95,WNW,302,0.0,1.0,77,0.00,,---,0.00,VWS V14.01,2013-04-28 15:48:00,
2013-04-28 10:49:00,64.4,57.0,29.95,WNW,302,0.0,1.0,77,0.00,,---,0.00,VWS V14.01,2013-04-28 15:49:00,
2013-04-28 10:50:00,64.5,57.1,29.95,WNW,302,0.0,1.0,77,0.00,,---,0.00,VWS V14.01,2013-04-28 15:50:00,
2013-04-28 10:51:00,64.6,56.9,29.95,WNW,303,0.0,1.0,76,0.00,,---,0.00,VWS V14.01,2013-04-28 15:51:00,
2013-04-28 10:52:00,64.7,57.0,29.95,WNW,302,1.0,1.0,76,0.00,,---,0.00,VWS V14.01,2013-04-28 15:52:00,
2013-04-28 10:54:00,64.9,56.8,29.95,WNW,302,0.0,1.0,75,0.00,,---,0.00,VWS V14.01,2013-04-28 15:54:00,
2013-04-28 10:55:00,65.0,57.3,29.95,WNW,302,0.0,1.0,76,0.00,,---,0.00,VWS V14.01,2013-04-28 15:55:00,
2013-04-28 10:56:00,65.0,57.3,29.95,WNW,302,0.0,1.0,76,0.00,,---,0.00,VWS V14.01,2013-04-28 15:56:00,
2013-04-28 10:57:00,65.2,57.1,29.95,WNW,302,0.0,1.0,75,0.00,,---,0.00,VWS V14.01,2013-04-28 15:57:00,
2013-04-28 10:59:00,65.4,57.3,29.95,WNW,302,0.0,1.0,75,0.00,,---,0.00,VWS V14.01,2013-04-28 15:59:00,
2013-04-28 11:00:00,65.5,57.0,29.95,WNW,302,0.0,1.0,74,0.00,,---,0.00,VWS V14.01,2013-04-28 16:00:00,
2013-04-28 11:01:00,65.6,56.7,29.95,NNW,340,0.0,0.0,73,0.00,,---,0.00,VWS V14.01,2013-04-28 16:01:00,
2013-04-28 11:02:00,65.6,57.1,29.95,NNW,337,1.0,1.0,74,0.00,,---,0.00,VWS V14.01,2013-04-28 16:02:00,
2013-04-28 11:04:00,65.7,56.8,29.95,NNW,335,0.0,1.0,73,0.00,,---,0.00,VWS V14.01,2013-04-28 16:04:00,
2013-04-28 11:05:00,65.7,56.8,29.95,NNW,335,0.0,1.0,73,0.00,,---,0.00,VWS V14.01,2013-04-28 16:05:00,
2013-04-28 11:06:00,65.6,56.7,29.95,WNW,285,2.0,4.0,73,0.00,,---,0.00,VWS V14.01,2013-04-28 16:06:00,
2013-04-28 11:07:00,65.4,56.5,29.95,WNW,295,1.0,4.0,73,0.00,,---,0.00,VWS V14.01,2013-04-28 16:07:00,
2013-04-28 11:09:00,65.2,57.1,29.95,WNW,294,3.0,7.0,75,0.00,,---,0.00,VWS V14.01,2013-04-28 16:09:00,
2013-04-28 11:10:00,65.0,56.9,29.95,WNW,295,0.0,7.0,75,0.00,,---,0.00,VWS V14.01,2013-04-28 16:10:00,
2013-04-28 11:11:00,64.7,56.6,29.95,NW,326,0.0,7.0,75,0.00,,---,0.00,VWS V14.01,2013-04-28 16:11:00,
2013-04-28 11:12:00,64.6,56.5,29.95,NW,326,0.0,7.0,75,0.00,,---,0.00,VWS V14.01,2013-04-28 16:12:00,
2013-04-28 11:14:00,64.4,56.7,29.95,NW,326,0.0,7.0,76,0.00,,---,0.00,VWS V14.01,2013-04-28 16:14:00,
2013-04-28 11:15:00,64.4,56.7,29.95,NW,326,0.0,7.0,76,0.00,,---,0.00,VWS V14.01,2013-04-28 16:15:00,
2013-04-28 11:16:00,64.3,56.6,29.95,NW,326,0.0,0.0,76,0.00,,---,0.00,VWS V14.01,2013-04-28 16:16:00,
2013-04-28 11:17:00,64.3,56.6,29.95,NW,326,0.0,0.0,76,0.00,,---,0.00,VWS V14.01,2013-04-28 16:17:00,
2013-04-28 11:19:00,64.3,56.6,29.95,NW,326,0.0,1.0,76,0.00,,---,0.00,VWS V14.01,2013-04-28 16:19:00,
2013-04-28 11:20:00,64.3,56.6,29.95,NW,326,0.0,1.0,76,0.00,,---,0.00,VWS V14.01,2013-04-28 16:20:00,
2013-04-28 11:21:00,64.3,56.6,29.95,NW,325,0.0,1.0,76,0.00,,---,0.00,VWS V14.01,2013-04-28 16:21:00,
2013-04-28 11:22:00,64.3,56.6,29.95,NW,325,0.0,1.0,76,0.00,,---,0.00,VWS V14.01,2013-04-28 16:22:00,
2013-04-28 11:25:00,64.3,56.6,29.95,NW,325,0.0,1.0,76,0.00,,---,0.00,VWS V14.01,2013-04-28 16:25:00,
2013-04-28 11:26:00,64.3,56.6,29.95,West,265,1.0,1.0,76,0.00,,---,0.00,VWS V14.01,2013-04-28 16:26:00,
2013-04-28 11:27:00,64.3,56.6,29.95,West,280,0.0,2.0,76,0.00,,---,0.00,VWS V14.01,2013-04-28 16:27:00,
2013-04-28 11:30:00,64.4,57.0,29.95,West,280,0.0,2.0,77,0.00,,---,0.00,VWS V14.01,2013-04-28 16:30:00,
2013-04-28 11:31:00,64.5,56.8,29.96,West,281,0.0,0.0,76,0.00,,---,0.00,VWS V14.01,2013-04-28 16:31:00,
2013-04-28 11:32:00,64.5,56.8,29.96,West,281,1.0,1.0,76,0.00,,---,0.00,VWS V14.01,2013-04-28 16:32:00,
2013-04-28 11:33:00,64.6,56.9,29.95,West,281,1.0,1.0,76,0.00,,---,0.00,VWS V14.01,2013-04-28 16:33:00,
2013-04-28 11:35:00,64.8,57.1,29.96,West,281,0.0,1.0,76,0.00,,---,0.00,VWS V14.01,2013-04-28 16:35:00,
2013-04-28 11:36:00,64.8,57.1,29.96,WNW,300,8.0,10.0,76,0.00,,---,0.00,VWS V14.01,2013-04-28 16:36:00,
2013-04-28 11:37:00,64.7,57.3,29.96,WNW,283,3.0,10.0,77,0.00,,---,0.00,VWS V14.01,2013-04-28 16:37:00,
2013-04-28 11:38:00,64.6,56.9,29.96,WNW,287,5.0,10.0,76,0.00,,---,0.00,VWS V14.01,2013-04-28 16:38:00,
2013-04-28 11:40:00,64.1,56.4,29.96,West,269,0.0,10.0,76,0.00,,---,0.00,VWS V14.01,2013-04-28 16:40:00,
2013-04-28 11:41:00,63.9,56.9,29.96,West,269,2.0,10.0,78,0.00,,---,0.00,VWS V14.01,2013-04-28 16:41:00,
2013-04-28 11:42:00,63.8,57.0,29.96,WNW,287,3.0,9.0,78,0.00,,,0.00,weatherlink.com 1.10,2013-04-28 16:42:00,
2013-04-28 11:43:00,63.8,56.8,29.96,West,271,3.0,10.0,78,0.00,,---,0.00,VWS V14.01,2013-04-28 16:43:00,
2013-04-28 11:45:00,63.8,57.2,29.96,WNW,292,3.0,10.0,79,0.00,,---,0.00,VWS V14.01,2013-04-28 16:45:00,
2013-04-28 11:47:00,63.7,57.1,29.96,NW,306,5.0,7.0,79,0.00,,---,0.00,VWS V14.01,2013-04-28 16:47:00,
2013-04-28 11:48:00,63.5,56.5,29.96,WNW,290,4.0,7.0,78,0.00,,---,0.00,VWS V14.01,2013-04-28 16:48:00,
2013-04-28 11:50:00,63.4,56.8,29.96,WNW,292,0.0,7.0,79,0.00,,---,0.00,VWS V14.01,2013-04-28 16:50:00,
2013-04-28 11:52:00,63.5,56.9,29.96,WNW,292,0.0,7.0,79,0.00,,---,0.00,VWS V14.01,2013-04-28 16:52:00,
2013-04-28 11:53:00,63.6,57.0,29.96,West,278,3.0,7.0,79,0.00,,---,0.00,VWS V14.01,2013-04-28 16:53:00,
2013-04-28 11:55:00,63.8,57.2,29.96,WNW,297,3.0,7.0,79,0.00,,---,0.00,VWS V14.01,2013-04-28 16:55:00,
2013-04-28 11:56:00,63.9,57.3,29.96,WNW,285,4.0,7.0,79,0.00,,---,0.00,VWS V14.01,2013-04-28 16:56:00,
2013-04-28 11:57:00,64.0,57.4,29.96,WSW,256,1.0,7.0,79,0.00,,---,0.00,VWS V14.01,2013-04-28 16:57:00,
2013-04-28 11:58:00,64.1,57.5,29.96,West,268,1.0,7.0,79,0.00,,---,0.00,VWS V14.01,2013-04-28 16:58:00,
2013-04-28 11:59:00,64.2,57.2,29.96,West,268,0.0,7.0,78,0.00,,---,0.00,VWS V14.01,2013-04-28 16:59:00,
2013-04-28 12:00:00,64.3,57.3,29.96,West,268,0.0,7.0,78,0.00,,---,0.00,VWS V14.01,2013-04-28 17:00:00,
2013-04-28 12:01:00,64.3,57.0,29.96,West,268,0.0,0.0,77,0.00,,---,0.00,VWS V14.01,2013-04-28 17:01:00,
2013-04-28 12:02:00,64.5,57.1,29.96,West,280,6.0,6.0,77,0.00,,---,0.00,VWS V14.01,2013-04-28 17:02:00,
2013-04-28 12:03:00,64.4,57.0,29.96,West,270,6.0,6.0,77,0.00,,---,0.00,VWS V14.01,2013-04-28 17:03:00,
2013-04-28 12:04:00,64.3,57.3,29.96,WNW,298,0.0,6.0,78,0.00,,---,0.00,VWS V14.01,2013-04-28 17:04:00,
2013-04-28 12:05:00,64.2,57.2,29.96,WNW,297,0.0,6.0,78,0.00,,---,0.00,VWS V14.01,2013-04-28 17:05:00,
2013-04-28 12:06:00,64.2,57.2,29.96,WNW,297,0.0,6.0,78,0.00,,---,0.00,VWS V14.01,2013-04-28 17:06:00,
2013-04-28 12:07:00,64.2,57.2,29.96,West,278,3.0,6.0,78,0.00,,---,0.00,VWS V14.01,2013-04-28 17:07:00,
2013-04-28 12:08:00,64.2,56.8,29.96,West,276,0.0,6.0,77,0.00,,---,0.00,VWS V14.01,2013-04-28 17:08:00,
2013-04-28 12:09:00,64.2,57.2,29.96,West,276,0.0,6.0,78,0.00,,---,0.00,VWS V14.01,2013-04-28 17:09:00,
2013-04-28 12:10:00,64.3,57.3,29.96,West,276,0.0,6.0,78,0.00,,---,0.00,VWS V14.01,2013-04-28 17:10:00,
2013-04-28 12:11:00,64.3,57.3,29.96,West,276,0.0,6.0,78,0.00,,---,0.00,VWS V14.01,2013-04-28 17:11:00,
2013-04-28 12:12:00,64.5,57.5,29.96,West,276,0.0,6.0,78,0.00,,---,0.00,VWS V14.01,2013-04-28 17:12:00,
2013-04-28 12:13:00,64.6,57.6,29.96,West,276,0.0,6.0,78,0.00,,---,0.00,VWS V14.01,2013-04-28 17:13:00,
2013-04-28 12:14:00,64.7,57.3,29.96,West,276,0.0,6.0,77,0.00,,---,0.00,VWS V14.01,2013-04-28 17:14:00,
2013-04-28 12:15:00,64.9,57.2,29.96,West,276,0.0,0.0,76,0.00,,---,0.00,VWS V14.01,2013-04-28 17:15:00,
2013-04-28 12:16:00,65.0,57.3,29.96,West,276,0.0,0.0,76,0.00,,---,0.00,VWS V14.01,2013-04-28 17:16:00,
2013-04-28 12:17:00,65.1,57.4,29.96,West,276,0.0,1.0,76,0.00,,---,0.00,VWS V14.01,2013-04-28 17:17:00,
2013-04-28 12:18:00,65.2,57.5,29.96,West,276,0.0,1.0,76,0.00,,---,0.00,VWS V14.01,2013-04-28 17:18:00,
2013-04-28 12:19:00,65.2,57.1,29.96,West,276,0.0,1.0,75,0.00,,---,0.00,VWS V14.01,2013-04-28 17:19:00,
2013-04-28 12:21:00,65.3,57.2,29.96,West,276,1.0,1.0,75,0.00,,---,0.00,VWS V14.01,2013-04-28 17:21:00,
2013-04-28 12:22:00,65.3,57.2,29.96,WNW,293,0.0,2.0,75,0.00,,---,0.00,VWS V14.01,2013-04-28 17:22:00,
2013-04-28 12:23:00,65.3,57.2,29.96,WNW,293,0.0,2.0,75,0.00,,---,0.00,VWS V14.01,2013-04-28 17:23:00,
2013-04-28 12:24:00,65.3,57.2,29.96,WNW,293,1.0,2.0,75,0.00,,---,0.00,VWS V14.01,2013-04-28 17:24:00,
2013-04-28 12:26:00,65.3,57.2,29.96,WNW,293,0.0,2.0,75,0.00,,---,0.00,VWS V14.01,2013-04-28 17:26:00,
2013-04-28 12:27:00,65.3,57.2,29.96,WNW,292,0.0,2.0,75,0.00,,---,0.00,VWS V14.01,2013-04-28 17:27:00,
2013-04-28 12:28:00,65.3,56.8,29.96,WNW,290,1.0,2.0,74,0.00,,---,0.00,VWS V14.01,2013-04-28 17:28:00,
2013-04-28 12:29:00,65.4,57.3,29.96,WNW,290,1.0,2.0,75,0.00,,---,0.00,VWS V14.01,2013-04-28 17:29:00,
2013-04-28 12:31:00,65.5,57.4,29.96,WNW,297,1.0,1.0,75,0.00,,---,0.00,VWS V14.01,2013-04-28 17:31:00,
2013-04-28 12:32:00,65.5,57.4,29.96,WNW,297,0.0,1.0,75,0.00,,---,0.00,VWS V14.01,2013-04-28 17:32:00,
2013-04-28 12:33:00,65.6,57.5,29.95,WNW,297,1.0,1.0,75,0.00,,---,0.00,VWS V14.01,2013-04-28 17:33:00,
2013-04-28 12:34:00,65.8,57.7,29.95,WNW,287,5.0,5.0,75,0.00,,---,0.00,VWS V14.01,2013-04-28 17:34:00,
2013-04-28 12:36:00,65.5,56.6,29.95,WNW,285,6.0,10.0,73,0.00,,---,0.00,VWS V14.01,2013-04-28 17:36:00,
2013-04-28 12:37:00,65.4,56.9,29.95,WNW,292,6.0,10.0,74,0.00,,---,0.00,VWS V14.01,2013-04-28 17:37:00,
2013-04-28 12:38:00,65.2,56.7,29.95,West,278,0.0,10.0,74,0.00,,---,0.00,VWS V14.01,2013-04-28 17:38:00,
2013-04-28 12:39:00,65.2,57.5,29.95,NW,318,1.0,10.0,76,0.00,,---,0.00,VWS V14.01,2013-04-28 17:39:00,
2013-04-28 12:41:00,65.2,57.1,29.95,NW,318,0.0,10.0,75,0.00,,---,0.00,VWS V14.01,2013-04-28 17:41:00,
2013-04-28 12:42:00,65.3,56.8,29.95,NW,318,0.0,10.0,74,0.00,,---,0.00,VWS V14.01,2013-04-28 17:42:00,
2013-04-28 12:43:00,65.4,56.9,29.95,NW,321,0.0,10.0,74,0.00,,---,0.00,VWS V14.01,2013-04-28 17:43:00,
2013-04-28 12:44:00,65.4,56.9,29.95,NW,321,0.0,10.0,74,0.00,,---,0.00,VWS V14.01,2013-04-28 17:44:00,
2013-04-28 12:45:00,65.5,57.0,29.95,NW,310,1.0,10.0,74,0.00,,---,0.00,VWS V14.01,2013-04-28 17:45:00,
2013-04-28 12:46:00,65.6,57.1,29.95,WNW,302,4.0,4.0,74,0.00,,---,0.00,VWS V14.01,2013-04-28 17:46:00,
2013-04-28 12:47:00,65.7,57.6,29.95,West,259,3.0,5.0,75,0.00,,---,0.00,VWS V14.01,2013-04-28 17:47:00,
2013-04-28 12:49:00,65.7,57.6,29.95,WNW,290,8.0,8.0,75,0.00,,---,0.00,VWS V14.01,2013-04-28 17:49:00,
2013-04-28 12:50:00,65.6,57.5,29.95,WNW,292,3.0,10.0,75,0.00,,---,0.00,VWS V14.01,2013-04-28 17:50:00,
2013-04-28 12:52:00,65.7,57.6,29.95,WNW,292,3.0,10.0,75,0.00,,---,0.00,VWS V14.01,2013-04-28 17:52:00,
2013-04-28 12:54:00,65.8,57.7,29.95,NW,308,1.0,10.0,75,0.00,,---,0.00,VWS V14.01,2013-04-28 17:54:00,
2013-04-28 12:55:00,65.9,57.8,29.95,NW,308,0.0,10.0,75,0.00,,---,0.00,VWS V14.01,2013-04-28 17:55:00,
2013-04-28 12:57:00,66.1,57.6,29.95,WNW,302,2.0,10.0,74,0.00,,---,0.00,VWS V14.01,2013-04-28 17:57:00,
2013-04-28 12:59:00,66.0,57.5,29.95,West,276,1.0,10.0,74,0.00,,---,0.00,VWS V14.01,2013-04-28 17:59:00,
2013-04-28 13:00:00,66.0,57.5,29.95,SW,226,4.0,10.0,74,0.00,,---,0.00,VWS V14.01,2013-04-28 18:00:00,
2013-04-28 13:02:00,66.0,57.5,29.95,WNW,292,1.0,1.0,74,0.00,,---,0.00,VWS V14.01,2013-04-28 18:02:00,
2013-04-28 13:04:00,66.2,57.3,29.95,WNW,287,0.0,1.0,73,0.00,,---,0.00,VWS V14.01,2013-04-28 18:04:00,
2013-04-28 13:05:00,66.3,57.4,29.95,WNW,290,1.0,1.0,73,0.00,,---,0.00,VWS V14.01,2013-04-28 18:05:00,
2013-04-28 13:08:00,66.5,57.2,29.95,NW,306,0.0,2.0,72,0.00,,---,0.00,VWS V14.01,2013-04-28 18:08:00,
2013-04-28 13:09:00,66.5,57.2,29.95,North,353,1.0,2.0,72,0.00,,---,0.00,VWS V14.01,2013-04-28 18:09:00,
2013-04-28 13:10:00,66.6,57.3,29.95,NNW,337,0.0,2.0,72,0.00,,---,0.00,VWS V14.01,2013-04-28 18:10:00,
2013-04-28 13:13:00,66.7,57.0,29.95,NW,325,0.0,2.0,71,0.00,,---,0.00,VWS V14.01,2013-04-28 18:13:00,
2013-04-28 13:14:00,66.8,57.1,29.95,NW,318,0.0,2.0,71,0.00,,---,0.00,VWS V14.01,2013-04-28 18:14:00,
2013-04-28 13:15:00,66.9,57.2,29.95,NW,318,0.0,2.0,71,0.00,,---,0.00,VWS V14.01,2013-04-28 18:15:00,
2013-04-28 13:18:00,67.1,57.0,29.95,NW,318,0.0,1.0,70,0.00,,---,0.00,VWS V14.01,2013-04-28 18:18:00,
2013-04-28 13:19:00,67.1,57.4,29.95,NW,318,0.0,1.0,71,0.00,,---,0.00,VWS V14.01,2013-04-28 18:19:00,
2013-04-28 13:20:00,67.2,57.5,29.95,NW,318,0.0,1.0,71,0.00,,---,0.00,VWS V14.01,2013-04-28 18:20:00,
2013-04-28 13:23:00,67.3,57.6,29.95,West,271,2.0,2.0,71,0.00,,---,0.00,VWS V14.01,2013-04-28 18:23:00,
2013-04-28 13:24:00,67.3,58.0,29.95,WNW,288,0.0,3.0,72,0.00,,---,0.00,VWS V14.01,2013-04-28 18:24:00,
2013-04-28 13:25:00,67.3,58.0,29.95,WNW,287,0.0,3.0,72,0.00,,---,0.00,VWS V14.01,2013-04-28 18:25:00,
2013-04-28 13:26:00,67.3,58.0,29.95,WNW,287,0.0,3.0,72,0.00,,---,0.00,VWS V14.01,2013-04-28 18:26:00,
2013-04-28 13:28:00,67.5,57.4,29.96,NW,322,0.0,3.0,70,0.00,,---,0.00,VWS V14.01,2013-04-28 18:28:00,
2013-04-28 13:29:00,67.5,57.4,29.95,NW,312,1.0,3.0,70,0.00,,---,0.00,VWS V14.01,2013-04-28 18:29:00,
2013-04-28 13:31:00,67.5,57.4,29.95,NW,312,0.0,0.0,70,0.00,,---,0.00,VWS V14.01,2013-04-28 18:31:00,
2013-04-28 13:33:00,67.4,57.3,29.96,NW,312,0.0,1.0,70,0.00,,---,0.00,VWS V14.01,2013-04-28 18:33:00,
2013-04-28 13:34:00,67.4,57.3,29.96,West,267,3.0,3.0,70,0.00,,---,0.00,VWS V14.01,2013-04-28 18:34:00,
2013-04-28 13:35:00,67.3,57.2,29.96,NW,310,0.0,3.0,70,0.00,,---,0.00,VWS V14.01,2013-04-28 18:35:00,
2013-04-28 13:36:00,67.3,57.6,29.96,NW,310,0.0,3.0,71,0.00,,---,0.00,VWS V14.01,2013-04-28 18:36:00,
2013-04-28 13:38:00,67.2,57.5,29.95,NW,305,1.0,3.0,71,0.00,,---,0.00,VWS V14.01,2013-04-28 18:38:00,
2013-04-28 13:39:00,67.1,57.4,29.95,WNW,293,1.0,3.0,71,0.00,,---,0.00,VWS V14.01,2013-04-28 18:39:00,
2013-04-28 13:40:00,67.1,57.4,29.96,WNW,293,0.0,3.0,71,0.00,,---,0.00,VWS V14.01,2013-04-28 18:40:00,
2013-04-28 13:41:00,67.1,57.4,29.95,WNW,293,0.0,3.0,71,0.00,,---,0.00,VWS V14.01,2013-04-28 18:41:00,
2013-04-28 13:44:00,67.2,57.5,29.95,WNW,293,0.0,3.0,71,0.00,,---,0.00,VWS V14.01,2013-04-28 18:44:00,
2013-04-28 13:45:00,67.3,57.6,29.95,WNW,292,0.0,3.0,71,0.00,,---,0.00,VWS V14.01,2013-04-28 18:45:00,
2013-04-28 13:46:00,67.4,57.3,29.96,WNW,293,1.0,1.0,70,0.00,,---,0.00,VWS V14.01,2013-04-28 18:46:00,
2013-04-28 13:49:00,67.5,57.8,29.95,West,278,1.0,1.0,71,0.00,,---,0.00,VWS V14.01,2013-04-28 18:49:00,
2013-04-28 13:50:00,67.5,57.4,29.95,West,279,0.0,1.0,70,0.00,,---,0.00,VWS V14.01,2013-04-28 18:50:00,
2013-04-28 13:51:00,67.6,57.9,29.95,West,278,0.0,1.0,71,0.00,,---,0.00,VWS V14.01,2013-04-28 18:51:00,
2013-04-28 13:54:00,67.6,57.1,29.95,WNW,299,2.0,3.0,69,0.00,,---,0.00,VWS V14.01,2013-04-28 18:54:00,
2013-04-28 13:55:00,67.5,57.0,29.95,WNW,290,1.0,4.0,69,0.00,,---,0.00,VWS V14.01,2013-04-28 18:55:00,
2013-04-28 13:56:00,67.3,57.2,29.95,WNW,295,4.0,7.0,70,0.00,,---,0.00,VWS V14.01,2013-04-28 18:56:00,
2013-04-28 13:59:00,66.7,57.0,29.95,WNW,302,2.0,7.0,71,0.00,,---,0.00,VWS V14.01,2013-04-28 18:59:00,
2013-04-28 14:00:00,66.6,57.3,29.95,West,278,1.0,7.0,72,0.00,,---,0.00,VWS V14.01,2013-04-28 19:00:00,
2013-04-28 14:01:00,66.5,57.6,29.95,West,278,2.0,3.0,73,0.00,,---,0.00,VWS V14.01,2013-04-28 19:01:00,
2013-04-28 14:02:00,66.5,57.6,29.96,WNW,283,1.0,4.0,73,0.00,,---,0.00,VWS V14.01,2013-04-28 19:02:00,
2013-04-28 14:04:00,66.4,57.5,29.96,WNW,283,0.0,4.0,73,0.00,,---,0.00,VWS V14.01,2013-04-28 19:04:00,
2013-04-28 14:05:00,66.5,57.2,29.95,WNW,283,0.0,4.0,72,0.00,,---,0.00,VWS V14.01,2013-04-28 19:05:00,
2013-04-28 14:06:00,66.4,57.5,29.95,West,274,5.0,6.0,73,0.00,,---,0.00,VWS V14.01,2013-04-28 19:06:00,
2013-04-28 14:07:00,66.3,57.0,29.95,West,281,2.0,6.0,72,0.00,,---,0.00,VWS V14.01,2013-04-28 19:07:00,
2013-04-28 14:09:00,66.1,57.2,29.95,WNW,283,0.0,7.0,73,0.00,,---,0.00,VWS V14.01,2013-04-28 19:09:00,
2013-04-28 14:10:00,66.1,57.2,29.95,WNW,284,1.0,7.0,73,0.00,,---,0.00,VWS V14.01,2013-04-28 19:10:00,
2013-04-28 14:11:00,66.1,57.2,29.95,NW,307,0.0,7.0,73,0.00,,---,0.00,VWS V14.01,2013-04-28 19:11:00,
2013-04-28 14:12:00,66.1,57.2,29.95,West,262,5.0,7.0,73,0.00,,---,0.00,VWS V14.01,2013-04-28 19:12:00,
2013-04-28 14:15:00,65.9,57.0,29.95,WNW,291,4.0,7.0,73,0.00,,---,0.00,VWS V14.01,2013-04-28 19:15:00,
2013-04-28 14:17:00,65.8,57.3,29.95,NW,310,1.0,2.0,74,0.00,,---,0.00,VWS V14.01,2013-04-28 19:17:00,
2013-04-28 14:20:00,66.1,57.6,29.95,NW,310,0.0,2.0,74,0.00,,---,0.00,VWS V14.01,2013-04-28 19:20:00,
2013-04-28 14:22:00,66.5,57.2,29.95,NW,309,1.0,2.0,72,0.00,,---,0.00,VWS V14.01,2013-04-28 19:22:00,
2013-04-28 14:25:00,66.8,57.5,29.95,West,280,0.0,2.0,72,0.00,,---,0.00,VWS V14.01,2013-04-28 19:25:00,
2013-04-28 14:26:00,66.9,57.6,29.95,West,280,1.0,2.0,72,0.00,,---,0.00,VWS V14.01,2013-04-28 19:26:00,
2013-04-28 14:27:00,67.0,56.9,29.95,NNW,328,0.0,2.0,70,0.00,,---,0.00,VWS V14.01,2013-04-28 19:27:00,
2013-04-28 14:28:00,67.0,56.9,29.95,NNW,328,1.0,2.0,70,0.00,,---,0.00,VWS V14.01,2013-04-28 19:28:00,
2013-04-28 14:30:00,66.8,56.3,29.95,NNW,338,0.0,2.0,69,0.00,,---,0.00,VWS V14.01,2013-04-28 19:30:00,
2013-04-28 14:31:00,66.8,56.3,29.95,NNW,335,1.0,1.0,69,0.00,,---,0.00,VWS V14.01,2013-04-28 19:31:00,
2013-04-28 14:32:00,66.7,56.6,29.95,NW,325,0.0,1.0,70,0.00,,---,0.00,VWS V14.01,2013-04-28 19:32:00,
2013-04-28 14:33:00,66.7,56.6,29.95,NW,326,1.0,1.0,70,0.00,,---,0.00,VWS V14.01,2013-04-28 19:33:00,
2013-04-28 14:35:00,66.8,56.7,29.95,NW,304,0.0,1.0,70,0.00,,---,0.00,VWS V14.01,2013-04-28 19:35:00,
2013-04-28 14:36:00,66.8,56.7,29.95,NW,304,0.0,1.0,70,0.00,,---,0.00,VWS V14.01,2013-04-28 19:36:00,
2013-04-28 14:37:00,67.1,57.0,29.95,WNW,290,1.0,1.0,70,0.00,,---,0.00,VWS V14.01,2013-04-28 19:37:00,
2013-04-28 14:38:00,67.2,56.7,29.95,WNW,290,0.0,1.0,69,0.00,,---,0.00,VWS V14.01,2013-04-28 19:38:00,
2013-04-28 14:40:00,67.6,57.1,29.95,WNW,295,0.0,1.0,69,0.00,,---,0.00,VWS V14.01,2013-04-28 19:40:00,
2013-04-28 14:41:00,67.7,57.2,29.95,WNW,295,0.0,1.0,69,0.00,,---,0.00,VWS V14.01,2013-04-28 19:41:00,
2013-04-28 14:42:00,68.1,57.2,29.95,WNW,292,0.0,2.0,68,0.00,,---,0.00,VWS V14.01,2013-04-28 19:42:00,
2013-04-28 14:43:00,68.3,57.3,29.95,WNW,292,0.0,2.0,68,0.00,,---,0.00,VWS V14.01,2013-04-28 19:43:00,
2013-04-28 14:46:00,68.4,56.6,29.95,WNW,302,1.0,1.0,66,0.00,,---,0.00,VWS V14.01,2013-04-28 19:46:00,
2013-04-28 14:48:00,68.3,56.1,29.95,West,280,0.0,2.0,65,0.00,,---,0.00,VWS V14.01,2013-04-28 19:48:00,
2013-04-28 14:51:00,68.4,56.2,29.95,West,280,0.0,2.0,65,0.00,,---,0.00,VWS V14.01,2013-04-28 19:51:00,
2013-04-28 14:53:00,68.6,56.8,29.95,West,280,0.0,2.0,66,0.00,,---,0.00,VWS V14.01,2013-04-28 19:53:00,
2013-04-28 14:56:00,68.6,56.4,29.95,West,281,0.0,2.0,65,0.00,,---,0.00,VWS V14.01,2013-04-28 19:56:00,
2013-04-28 14:58:00,68.6,56.0,29.95,West,281,0.0,2.0,64,0.00,,---,0.00,VWS V14.01,2013-04-28 19:58:00,
2013-04-28 15:01:00,68.5,55.9,29.95,West,281,0.0,1.0,64,0.00,,---,0.00,VWS V14.01,2013-04-28 20:01:00,
2013-04-28 15:02:00,68.4,55.8,29.95,WNW,282,1.0,1.0,64,0.00,,---,0.00,VWS V14.01,2013-04-28 20:02:00,
2013-04-28 15:03:00,68.2,56.0,29.95,NW,314,4.0,8.0,65,0.00,,---,0.00,VWS V14.01,2013-04-28 20:03:00,
2013-04-28 15:06:00,67.8,56.0,29.94,NW,319,0.0,8.0,66,0.00,,---,0.00,VWS V14.01,2013-04-28 20:06:00,
2013-04-28 15:07:00,67.8,56.0,29.94,NW,318,0.0,8.0,66,0.00,,---,0.00,VWS V14.01,2013-04-28 20:07:00,
2013-04-28 15:08:00,67.8,56.0,29.94,NW,314,0.0,8.0,66,0.00,,---,0.00,VWS V14.01,2013-04-28 20:08:00,
2013-04-28 15:11:00,68.1,55.9,29.94,NW,316,1.0,8.0,65,0.00,,---,0.00,VWS V14.01,2013-04-28 20:11:00,
2013-04-28 15:12:00,68.1,55.9,29.94,NW,315,1.0,8.0,65,0.00,,---,0.00,VWS V14.01,2013-04-28 20:12:00,
2013-04-28 15:13:00,68.2,56.4,29.94,NW,315,0.0,8.0,66,0.00,,---,0.00,VWS V14.01,2013-04-28 20:13:00,
2013-04-28 15:14:00,68.3,56.5,29.94,NW,316,0.0,8.0,66,0.00,,---,0.00,VWS V14.01,2013-04-28 20:14:00,
2013-04-28 15:16:00,68.4,56.2,29.94,NW,315,0.0,1.0,65,0.00,,---,0.00,VWS V14.01,2013-04-28 20:16:00,
2013-04-28 15:17:00,68.5,56.3,29.94,NW,315,1.0,1.0,65,0.00,,---,0.00,VWS V14.01,2013-04-28 20:17:00,
2013-04-28 15:18:00,68.4,55.8,29.94,NNE,17,1.0,3.0,64,0.00,,---,0.00,VWS V14.01,2013-04-28 20:18:00,
2013-04-28 15:19:00,68.4,56.2,29.94,North,350,0.0,3.0,65,0.00,,---,0.00,VWS V14.01,2013-04-28 20:19:00,
2013-04-28 15:22:00,68.3,55.7,29.94,NNW,329,0.0,3.0,64,0.00,,---,0.00,VWS V14.01,2013-04-28 20:22:00,
2013-04-28 15:23:00,68.3,56.1,29.94,WNW,290,3.0,3.0,65,0.00,,---,0.00,VWS V14.01,2013-04-28 20:23:00,
2013-04-28 15:24:00,68.4,56.2,29.94,WNW,291,0.0,3.0,65,0.00,,---,0.00,VWS V14.01,2013-04-28 20:24:00,
2013-04-28 15:27:00,68.2,56.4,29.94,West,279,1.0,6.0,66,0.00,,---,0.00,VWS V14.01,2013-04-28 20:27:00,
2013-04-28 15:28:00,68.2,56.8,29.94,WNW,290,5.0,6.0,67,0.00,,---,0.00,VWS V14.01,2013-04-28 20:28:00,
2013-04-28 15:29:00,68.0,55.8,29.94,NW,318,5.0,6.0,65,0.00,,---,0.00,VWS V14.01,2013-04-28 20:29:00,
2013-04-28 15:32:00,67.7,56.4,29.94,WNW,284,0.0,0.0,67,0.00,,---,0.00,VWS V14.01,2013-04-28 20:32:00,
2013-04-28 15:33:00,67.9,56.5,29.94,WNW,285,0.0,1.0,67,0.00,,---,0.00,VWS V14.01,2013-04-28 20:33:00,
2013-04-28 15:34:00,67.9,56.5,29.94,WNW,285,1.0,1.0,67,0.00,,---,0.00,VWS V14.01,2013-04-28 20:34:00,
2013-04-28 15:37:00,68.5,56.7,29.94,NW,312,0.0,2.0,66,0.00,,---,0.00,VWS V14.01,2013-04-28 20:37:00,
2013-04-28 15:38:00,68.5,56.7,29.94,NW,314,1.0,2.0,66,0.00,,---,0.00,VWS V14.01,2013-04-28 20:38:00,
2013-04-28 15:39:00,68.5,56.3,29.94,NW,314,0.0,2.0,65,0.00,,---,0.00,VWS V14.01,2013-04-28 20:39:00,
2013-04-28 15:42:00,68.3,56.5,29.94,North,350,1.0,2.0,66,0.00,,---,0.00,VWS V14.01,2013-04-28 20:42:00,
2013-04-28 15:43:00,68.2,56.4,29.94,North,350,0.0,2.0,66,0.00,,---,0.00,VWS V14.01,2013-04-28 20:43:00,
2013-04-28 15:44:00,68.2,56.4,29.94,North,350,0.0,2.0,66,0.00,,---,0.00,VWS V14.01,2013-04-28 20:44:00,
2013-04-28 15:47:00,68.2,56.0,29.94,NNW,348,1.0,1.0,65,0.00,,---,0.00,VWS V14.01,2013-04-28 20:47:00,
2013-04-28 15:48:00,68.3,56.1,29.94,NW,314,0.0,1.0,65,0.00,,---,0.00,VWS V14.01,2013-04-28 20:48:00,
2013-04-28 15:49:00,68.4,56.2,29.94,West,276,1.0,3.0,65,0.00,,---,0.00,VWS V14.01,2013-04-28 20:49:00,
2013-04-28 15:52:00,68.8,56.1,29.94,WNW,293,2.0,3.0,64,0.00,,---,0.00,VWS V14.01,2013-04-28 20:52:00,
2013-04-28 15:53:00,68.8,56.1,29.94,WNW,292,2.0,3.0,64,0.00,,---,0.00,VWS V14.01,2013-04-28 20:53:00,
2013-04-28 15:54:00,68.9,55.8,29.94,West,274,0.0,3.0,63,0.00,,---,0.00,VWS V14.01,2013-04-28 20:54:00,
2013-04-28 15:55:00,68.9,55.8,29.94,West,278,1.0,3.0,63,0.00,,---,0.00,VWS V14.01,2013-04-28 20:55:00,
2013-04-28 15:57:00,69.0,56.3,29.94,West,280,0.0,3.0,64,0.00,,---,0.00,VWS V14.01,2013-04-28 20:57:00,
2013-04-28 15:58:00,69.0,56.3,29.94,West,279,0.0,3.0,64,0.00,,---,0.00,VWS V14.01,2013-04-28 20:58:00,
2013-04-28 15:59:00,68.9,55.4,29.94,West,279,0.0,3.0,62,0.00,,---,0.00,VWS V14.01,2013-04-28 20:59:00,
2013-04-28 16:00:00,68.9,55.4,29.94,NNE,24,2.0,3.0,62,0.00,,---,0.00,VWS V14.01,2013-04-28 21:00:00,
2013-04-28 16:03:00,68.4,55.8,29.94,North,11,0.0,2.0,64,0.00,,---,0.00,VWS V14.01,2013-04-28 21:03:00,
2013-04-28 16:04:00,68.4,56.2,29.94,North,11,0.0,2.0,65,0.00,,---,0.00,VWS V14.01,2013-04-28 21:04:00,
2013-04-28 16:05:00,68.2,55.6,29.94,North,353,1.0,2.0,64,0.00,,---,0.00,VWS V14.01,2013-04-28 21:05:00,
2013-04-28 16:08:00,68.1,55.5,29.94,North,352,1.0,2.0,64,0.00,,---,0.00,VWS V14.01,2013-04-28 21:08:00,
2013-04-28 16:09:00,68.1,55.9,29.94,West,274,5.0,5.0,65,0.00,,---,0.00,VWS V14.01,2013-04-28 21:09:00,
2013-04-28 16:10:00,68.0,55.8,29.94,WNW,291,0.0,5.0,65,0.00,,---,0.00,VWS V14.01,2013-04-28 21:10:00,
2013-04-28 16:13:00,68.0,55.0,29.94,West,280,2.0,5.0,63,0.00,,---,0.00,VWS V14.01,2013-04-28 21:13:00,
2013-04-28 16:14:00,67.8,55.2,29.94,West,281,4.0,6.0,64,0.00,,---,0.00,VWS V14.01,2013-04-28 21:14:00,
2013-04-28 16:15:00,67.7,55.1,29.94,West,260,2.0,6.0,64,0.00,,---,0.00,VWS V14.01,2013-04-28 21:15:00,
2013-04-28 16:16:00,67.6,55.0,29.94,West,276,5.0,6.0,64,0.00,,---,0.00,VWS V14.01,2013-04-28 21:16:00,
2013-04-28 16:18:00,67.4,56.1,29.94,WNW,295,2.0,6.0,67,0.00,,---,0.00,VWS V14.01,2013-04-28 21:18:00,
2013-04-28 16:19:00,67.6,56.3,29.94,WNW,295,0.0,6.0,67,0.00,,---,0.00,VWS V14.01,2013-04-28 21:19:00,
2013-04-28 16:20:00,67.8,56.0,29.94,WNW,295,0.0,6.0,66,0.00,,---,0.00,VWS V14.01,2013-04-28 21:20:00,
2013-04-28 16:21:00,68.1,56.3,29.94,WNW,302,1.0,6.0,66,0.00,,---,0.00,VWS V14.01,2013-04-28 21:21:00,
2013-04-28 16:23:00,68.6,56.4,29.94,WNW,285,3.0,6.0,65,0.00,,---,0.00,VWS V14.01,2013-04-28 21:23:00,
2013-04-28 16:25:00,69.0,55.9,29.94,WNW,302,1.0,6.0,63,0.00,,---,0.00,VWS V14.01,2013-04-28 21:25:00,
2013-04-28 16:26:00,69.2,56.1,29.94,WNW,302,2.0,6.0,63,0.00,,---,0.00,VWS V14.01,2013-04-28 21:26:00,
2013-04-28 16:28:00,69.2,56.1,29.94,West,271,2.0,6.0,63,0.00,,---,0.00,VWS V14.01,2013-04-28 21:28:00,
2013-04-28 16:30:00,69.1,56.4,29.94,WNW,295,0.0,6.0,64,0.00,,---,0.00,VWS V14.01,2013-04-28 21:30:00,
2013-04-28 16:31:00,69.0,55.9,29.94,West,271,1.0,5.0,63,0.00,,---,0.00,VWS V14.01,2013-04-28 21:31:00,
2013-04-28 16:34:00,68.2,55.1,29.94,WNW,290,5.0,7.0,63,0.00,,---,0.00,VWS V14.01,2013-04-28 21:34:00,
2013-04-28 16:35:00,67.8,55.2,29.94,WNW,297,6.0,7.0,64,0.00,,---,0.00,VWS V14.01,2013-04-28 21:35:00,
2013-04-28 16:36:00,67.5,55.3,29.94,WNW,285,3.0,7.0,65,0.00,,---,0.00,VWS V14.01,2013-04-28 21:36:00,
2013-04-28 16:39:00,67.3,56.0,29.93,WNW,295,3.0,7.0,67,0.00,,---,0.00,VWS V14.01,2013-04-28 21:39:00,
2013-04-28 16:40:00,67.3,56.0,29.94,West,280,1.0,7.0,67,0.00,,---,0.00,VWS V14.01,2013-04-28 21:40:00,
2013-04-28 16:41:00,67.3,56.0,29.93,West,280,1.0,7.0,67,0.00,,---,0.00,VWS V14.01,2013-04-28 21:41:00,
2013-04-28 16:44:00,67.5,55.8,29.93,West,279,1.0,7.0,66,0.00,,---,0.00,VWS V14.01,2013-04-28 21:44:00,
2013-04-28 16:45:00,67.5,56.2,29.93,West,276,0.0,7.0,67,0.00,,---,0.00,VWS V14.01,2013-04-28 21:45:00,
2013-04-28 16:46:00,67.5,56.2,29.93,West,276,0.0,0.0,67,0.00,,---,0.00,VWS V14.01,2013-04-28 21:46:00,
2013-04-28 16:49:00,67.6,56.3,29.93,West,264,0.0,5.0,67,0.00,,---,0.00,VWS V14.01,2013-04-28 21:49:00,
2013-04-28 16:50:00,67.7,56.0,29.93,West,264,0.0,5.0,66,0.00,,---,0.00,VWS V14.01,2013-04-28 21:50:00,
2013-04-28 16:51:00,67.8,56.0,29.93,West,265,0.0,5.0,66,0.00,,---,0.00,VWS V14.01,2013-04-28 21:51:00,
2013-04-28 16:54:00,68.5,56.3,29.93,WNW,286,1.0,5.0,65,0.00,,---,0.00,VWS V14.01,2013-04-28 21:54:00,
2013-04-28 16:55:00,68.6,56.0,29.93,West,270,3.0,6.0,64,0.00,,---,0.00,VWS V14.01,2013-04-28 21:55:00,
2013-04-28 16:56:00,68.4,55.3,29.93,West,278,1.0,6.0,63,0.00,,---,0.00,VWS V14.01,2013-04-28 21:56:00,
2013-04-28 16:57:00,68.3,54.8,29.93,West,277,1.0,6.0,62,0.00,,---,0.00,VWS V14.01,2013-04-28 21:57:00,
2013-04-28 16:59:00,68.2,56.4,29.93,WNW,296,7.0,7.0,66,0.00,,---,0.00,VWS V14.01,2013-04-28 21:59:00,
2013-04-28 17:00:00,68.0,54.5,29.93,WNW,294,5.0,7.0,62,0.00,,---,0.00,VWS V14.01,2013-04-28 22:00:00,
2013-04-28 17:01:00,67.9,54.4,29.93,WNW,290,3.0,4.0,62,0.00,,---,0.00,VWS V14.01,2013-04-28 22:01:00,
2013-04-28 17:02:00,67.8,54.8,29.93,WNW,283,1.0,4.0,63,0.00,,---,0.00,VWS V14.01,2013-04-28 22:02:00,
2013-04-28 17:04:00,67.5,55.8,29.93,WNW,299,2.0,7.0,66,0.00,,---,0.00,VWS V14.01,2013-04-28 22:04:00,
2013-04-28 17:05:00,67.5,56.2,29.93,WNW,290,4.0,7.0,67,0.00,,---,0.00,VWS V14.01,2013-04-28 22:05:00,
2013-04-28 17:06:00,67.4,55.2,29.93,WNW,287,3.0,7.0,65,0.00,,---,0.00,VWS V14.01,2013-04-28 22:06:00,
2013-04-28 17:07:00,67.4,55.7,29.93,WNW,287,1.0,7.0,66,0.00,,---,0.00,VWS V14.01,2013-04-28 22:07:00,
2013-04-28 17:09:00,67.5,55.8,29.93,West,278,2.0,7.0,66,0.00,,---,0.00,VWS V14.01,2013-04-28 22:09:00,
2013-04-28 17:10:00,67.6,55.8,29.93,West,268,2.0,7.0,66,0.00,,---,0.00,VWS V14.01,2013-04-28 22:10:00,
2013-04-28 17:11:00,67.6,55.4,29.93,West,264,4.0,7.0,65,0.00,,---,0.00,VWS V14.01,2013-04-28 22:11:00,
2013-04-28 17:12:00,67.6,55.4,29.93,West,275,3.0,7.0,65,0.00,,---,0.00,VWS V14.01,2013-04-28 22:12:00,
2013-04-28 17:14:00,67.7,56.0,29.93,WNW,295,5.0,7.0,66,0.00,,---,0.00,VWS V14.01,2013-04-28 22:14:00,
2013-04-28 17:15:00,67.6,55.8,29.93,West,281,6.0,7.0,66,0.00,,---,0.00,VWS V14.01,2013-04-28 22:15:00,
2013-04-28 17:16:00,67.5,54.0,29.93,West,279,3.0,6.0,62,0.00,,---,0.00,VWS V14.01,2013-04-28 22:16:00,
2013-04-28 17:17:00,67.4,53.9,29.93,WNW,293,4.0,6.0,62,0.00,,---,0.00,VWS V14.01,2013-04-28 22:17:00,
2013-04-28 17:20:00,67.1,54.1,29.93,West,280,2.0,6.0,63,0.00,,---,0.00,VWS V14.01,2013-04-28 22:20:00,
2013-04-28 17:21:00,67.0,54.4,29.93,West,277,6.0,6.0,64,0.00,,---,0.00,VWS V14.01,2013-04-28 22:21:00,
2013-04-28 17:22:00,67.0,54.9,29.93,WNW,300,4.0,7.0,65,0.00,,---,0.00,VWS V14.01,2013-04-28 22:22:00,
2013-04-28 17:25:00,67.1,55.0,29.93,West,281,5.0,7.0,65,0.00,,---,0.00,VWS V14.01,2013-04-28 22:25:00,
2013-04-28 17:26:00,67.1,54.5,29.93,West,273,2.0,7.0,64,0.00,,---,0.00,VWS V14.01,2013-04-28 22:26:00,
2013-04-28 17:27:00,67.3,55.2,29.93,WNW,292,0.0,7.0,65,0.00,,---,0.00,VWS V14.01,2013-04-28 22:27:00,
2013-04-28 17:30:00,67.8,55.2,29.93,West,281,4.0,7.0,64,0.00,,---,0.00,VWS V14.01,2013-04-28 22:30:00,
2013-04-28 17:31:00,67.9,54.8,29.93,West,276,5.0,6.0,63,0.00,,---,0.00,VWS V14.01,2013-04-28 22:31:00,
2013-04-28 17:32:00,67.8,55.2,29.93,WNW,299,4.0,6.0,64,0.00,,---,0.00,VWS V14.01,2013-04-28 22:32:00,
2013-04-28 17:35:00,67.2,55.0,29.93,West,273,2.0,6.0,65,0.00,,---,0.00,VWS V14.01,2013-04-28 22:35:00,
2013-04-28 17:36:00,67.1,55.0,29.93,West,276,5.0,6.0,65,0.00,,---,0.00,VWS V14.01,2013-04-28 22:36:00,
2013-04-28 17:37:00,67.1,55.0,29.93,WNW,285,2.0,6.0,65,0.00,,---,0.00,VWS V14.01,2013-04-28 22:37:00,
2013-04-28 17:40:00,67.1,55.0,29.93,WNW,297,2.0,6.0,65,0.00,,---,0.00,VWS V14.01,2013-04-28 22:40:00,
2013-04-28 17:41:00,67.1,55.0,29.93,WNW,287,2.0,6.0,65,0.00,,---,0.00,VWS V14.01,2013-04-28 22:41:00,
2013-04-28 17:42:00,67.2,54.6,29.93,WNW,292,3.0,6.0,64,0.00,,---,0.00,VWS V14.01,2013-04-28 22:42:00,
2013-04-28 17:45:00,67.3,55.2,29.93,WNW,295,3.0,7.0,65,0.00,,---,0.00,VWS V14.01,2013-04-28 22:45:00,
2013-04-28 17:46:00,67.4,55.7,29.93,WNW,284,1.0,3.0,66,0.00,,---,0.00,VWS V14.01,2013-04-28 22:46:00,
2013-04-28 17:47:00,67.4,56.1,29.93,WNW,282,1.0,3.0,67,0.00,,---,0.00,VWS V14.01,2013-04-28 22:47:00,
2013-04-28 17:50:00,67.9,54.8,29.93,WNW,289,0.0,3.0,63,0.00,,---,0.00,VWS V14.01,2013-04-28 22:50:00,
2013-04-28 17:51:00,68.0,55.0,29.93,WNW,288,0.0,3.0,63,0.00,,---,0.00,VWS V14.01,2013-04-28 22:51:00,
2013-04-28 17:52:00,68.1,55.0,29.93,WNW,285,1.0,3.0,63,0.00,,---,0.00,VWS V14.01,2013-04-28 22:52:00,
2013-04-28 17:55:00,68.0,55.8,29.93,NW,304,0.0,8.0,65,0.00,,---,0.00,VWS V14.01,2013-04-28 22:55:00,
2013-04-28 17:56:00,68.0,55.8,29.93,NW,304,0.0,8.0,65,0.00,,---,0.00,VWS V14.01,2013-04-28 22:56:00,
2013-04-28 17:57:00,68.1,55.9,29.93,NW,304,0.0,8.0,65,0.00,,---,0.00,VWS V14.01,2013-04-28 22:57:00,
2013-04-28 18:01:00,68.8,56.1,29.93,West,271,3.0,3.0,64,0.00,,---,0.00,VWS V14.01,2013-04-28 23:01:00,
2013-04-28 18:02:00,69.0,56.3,29.93,WNW,287,1.0,3.0,64,0.00,,---,0.00,VWS V14.01,2013-04-28 23:02:00,
2013-04-28 18:06:00,69.3,56.2,29.92,West,278,1.0,3.0,63,0.00,,---,0.00,VWS V14.01,2013-04-28 23:06:00,
2013-04-28 18:07:00,69.3,56.2,29.92,WNW,302,1.0,5.0,63,0.00,,---,0.00,VWS V14.01,2013-04-28 23:07:00,
2013-04-28 18:11:00,68.7,56.0,29.92,West,271,0.0,5.0,64,0.00,,---,0.00,VWS V14.01,2013-04-28 23:11:00,
2013-04-28 18:12:00,68.7,56.0,29.92,West,271,0.0,5.0,64,0.00,,---,0.00,VWS V14.01,2013-04-28 23:12:00,
2013-04-28 18:16:00,68.8,56.1,29.92,WNW,287,1.0,1.0,64,0.00,,---,0.00,VWS V14.01,2013-04-28 23:16:00,
2013-04-28 18:17:00,68.8,56.1,29.92,WNW,287,0.0,1.0,64,0.00,,---,0.00,VWS V14.01,2013-04-28 23:17:00,
2013-04-28 18:21:00,68.8,56.6,29.92,WNW,292,0.0,1.0,65,0.00,,---,0.00,VWS V14.01,2013-04-28 23:21:00,
2013-04-28 18:22:00,68.8,56.6,29.92,WNW,284,3.0,3.0,65,0.00,,---,0.00,VWS V14.01,2013-04-28 23:22:00,
2013-04-28 18:26:00,68.0,56.2,29.92,WNW,287,1.0,6.0,66,0.00,,---,0.00,VWS V14.01,2013-04-28 23:26:00,
2013-04-28 18:27:00,67.9,56.1,29.92,West,269,4.0,6.0,66,0.00,,---,0.00,VWS V14.01,2013-04-28 23:27:00,
2013-04-28 18:31:00,67.9,56.1,29.92,WNW,285,0.0,1.0,66,0.00,,---,0.00,VWS V14.01,2013-04-28 23:31:00,
2013-04-28 18:32:00,68.0,56.2,29.92,WNW,285,0.0,1.0,66,0.00,,---,0.00,VWS V14.01,2013-04-28 23:32:00,
2013-04-28 18:33:00,68.1,56.3,29.92,WNW,285,1.0,1.0,66,0.00,,---,0.00,VWS V14.01,2013-04-28 23:33:00,
2013-04-28 18:36:00,68.5,56.3,29.92,WNW,285,0.0,1.0,65,0.00,,---,0.00,VWS V14.01,2013-04-28 23:36:00,
2013-04-28 18:37:00,68.5,56.3,29.92,WNW,285,0.0,1.0,65,0.00,,---,0.00,VWS V14.01,2013-04-28 23:37:00,
2013-04-28 18:38:00,68.6,56.4,29.92,WNW,285,0.0,1.0,65,0.00,,---,0.00,VWS V14.01,2013-04-28 23:38:00,
2013-04-28 18:42:00,69.0,56.3,29.92,WNW,285,0.0,1.0,64,0.00,,---,0.00,VWS V14.01,2013-04-28 23:42:00,
2013-04-28 18:43:00,69.1,56.4,29.92,WNW,285,0.0,1.0,64,0.00,,---,0.00,VWS V14.01,2013-04-28 23:43:00,
2013-04-28 18:44:00,69.1,56.0,29.92,WNW,285,0.0,1.0,63,0.00,,---,0.00,VWS V14.01,2013-04-28 23:44:00,
2013-04-28 18:47:00,68.6,56.0,29.92,West,276,0.0,4.0,64,0.00,,---,0.00,VWS V14.01,2013-04-28 23:47:00,
2013-04-28 18:48:00,68.4,55.8,29.92,West,276,0.0,4.0,64,0.00,,---,0.00,VWS V14.01,2013-04-28 23:48:00,
2013-04-28 18:49:00,68.1,55.9,29.92,West,276,0.0,4.0,65,0.00,,---,0.00,VWS V14.01,2013-04-28 23:49:00,
2013-04-28 18:52:00,67.8,55.6,29.92,West,276,0.0,4.0,65,0.00,,---,0.00,VWS V14.01,2013-04-28 23:52:00,
2013-04-28 18:53:00,67.8,56.0,29.92,West,276,0.0,4.0,66,0.00,,---,0.00,VWS V14.01,2013-04-28 23:53:00,
2013-04-28 18:54:00,67.8,55.6,29.92,West,276,0.0,4.0,65,0.00,,---,0.00,VWS V14.01,2013-04-28 23:54:00,
2013-04-28 18:57:00,67.7,55.5,29.92,West,276,0.0,4.0,65,0.00,,---,0.00,VWS V14.01,2013-04-28 23:57:00,
2013-04-28 18:58:00,67.7,55.5,29.92,West,276,0.0,4.0,65,0.00,,---,0.00,VWS V14.01,2013-04-28 23:58:00,
2013-04-28 18:59:00,67.6,55.4,29.92,West,276,0.0,4.0,65,0.00,,---,0.00,VWS V14.01,2013-04-28 23:59:00,
2013-04-28 19:02:00,67.2,55.0,29.92,West,276,0.0,0.0,65,0.00,,---,0.00,VWS V14.01,2013-04-29 00:02:00,
2013-04-28 19:03:00,67.2,55.0,29.92,West,276,0.0,0.0,65,0.00,,---,0.00,VWS V14.01,2013-04-29 00:03:00,
2013-04-28 19:04:00,67.0,55.3,29.92,West,276,0.0,0.0,66,0.00,,---,0.00,VWS V14.01,2013-04-29 00:04:00,
2013-04-28 19:07:00,66.3,55.0,29.92,WNW,299,2.0,3.0,67,0.00,,---,0.00,VWS V14.01,2013-04-29 00:07:00,
2013-04-28 19:08:00,66.2,54.9,29.92,WNW,285,0.0,3.0,67,0.00,,---,0.00,VWS V14.01,2013-04-29 00:08:00,
2013-04-28 19:09:00,66.0,55.2,29.92,WNW,285,0.0,3.0,68,0.00,,---,0.00,VWS V14.01,2013-04-29 00:09:00,
2013-04-28 19:12:00,65.6,54.8,29.92,WNW,284,0.0,3.0,68,0.00,,---,0.00,VWS V14.01,2013-04-29 00:12:00,
2013-04-28 19:13:00,65.5,54.7,29.92,WNW,284,0.0,3.0,68,0.00,,---,0.00,VWS V14.01,2013-04-29 00:13:00,
2013-04-28 19:14:00,65.4,54.6,29.92,WNW,285,0.0,3.0,68,0.00,,---,0.00,VWS V14.01,2013-04-29 00:14:00,
2013-04-28 19:15:00,65.3,54.5,29.92,WNW,285,0.0,3.0,68,0.00,,---,0.00,VWS V14.01,2013-04-29 00:15:00,
2013-04-28 19:17:00,64.9,54.5,29.92,WNW,285,0.0,0.0,69,0.00,,---,0.00,VWS V14.01,2013-04-29 00:17:00,
2013-04-28 19:18:00,64.8,54.4,29.92,WNW,285,0.0,0.0,69,0.00,,---,0.00,VWS V14.01,2013-04-29 00:18:00,
2013-04-28 19:19:00,64.7,54.3,29.92,WNW,284,0.0,0.0,69,0.00,,---,0.00,VWS V14.01,2013-04-29 00:19:00,
2013-04-28 19:20:00,64.6,54.2,29.92,WNW,285,0.0,0.0,69,0.00,,---,0.00,VWS V14.01,2013-04-29 00:20:00,
2013-04-28 19:22:00,64.2,54.2,29.92,WNW,285,0.0,0.0,70,0.00,,---,0.00,VWS V14.01,2013-04-29 00:22:00,
2013-04-28 19:23:00,64.0,54.0,29.92,WNW,285,0.0,0.0,70,0.00,,---,0.00,VWS V14.01,2013-04-29 00:23:00,
2013-04-28 19:24:00,64.0,54.0,29.92,WNW,285,0.0,0.0,70,0.00,,---,0.00,VWS V14.01,2013-04-29 00:24:00,
2013-04-28 19:25:00,63.7,54.1,29.92,WNW,284,0.0,0.0,71,0.00,,---,0.00,VWS V14.01,2013-04-29 00:25:00,
2013-04-28 19:27:00,63.4,53.8,29.92,WNW,285,0.0,0.0,71,0.00,,---,0.00,VWS V14.01,2013-04-29 00:27:00,
2013-04-28 19:28:00,63.3,54.1,29.92,WNW,285,0.0,0.0,72,0.00,,---,0.00,VWS V14.01,2013-04-29 00:28:00,
2013-04-28 19:29:00,63.3,54.1,29.92,WNW,284,0.0,0.0,72,0.00,,---,0.00,VWS V14.01,2013-04-29 00:29:00,
2013-04-28 19:30:00,63.1,53.9,29.92,WNW,285,0.0,0.0,72,0.00,,---,0.00,VWS V14.01,2013-04-29 00:30:00,
2013-04-28 19:32:00,62.8,54.0,29.92,WNW,285,0.0,0.0,73,0.00,,---,0.00,VWS V14.01,2013-04-29 00:32:00,
2013-04-28 19:33:00,62.7,53.9,29.92,WNW,285,0.0,0.0,73,0.00,,---,0.00,VWS V14.01,2013-04-29 00:33:00,
2013-04-28 19:34:00,62.7,53.9,29.92,WNW,285,0.0,0.0,73,0.00,,---,0.00,VWS V14.01,2013-04-29 00:34:00,
2013-04-28 19:36:00,62.5,53.7,29.92,WNW,285,0.0,0.0,73,0.00,,---,0.00,VWS V14.01,2013-04-29 00:36:00,
2013-04-28 19:38:00,62.3,53.9,29.92,WNW,285,0.0,0.0,74,0.00,,---,0.00,VWS V14.01,2013-04-29 00:38:00,
2013-04-28 19:39:00,62.2,53.8,29.92,WNW,286,0.0,0.0,74,0.00,,---,0.00,VWS V14.01,2013-04-29 00:39:00,
2013-04-28 19:41:00,62.0,54.0,29.92,WNW,285,0.0,0.0,75,0.00,,---,0.00,VWS V14.01,2013-04-29 00:41:00,
2013-04-28 19:43:00,61.8,53.8,29.92,WNW,285,0.0,0.0,75,0.00,,---,0.00,VWS V14.01,2013-04-29 00:43:00,
2013-04-28 19:44:00,61.7,53.7,29.92,WNW,286,0.0,0.0,75,0.00,,---,0.00,VWS V14.01,2013-04-29 00:44:00,
2013-04-28 19:46:00,61.6,53.6,29.92,WNW,286,0.0,0.0,75,0.00,,---,0.00,VWS V14.01,2013-04-29 00:46:00,
2013-04-28 19:48:00,61.4,53.8,29.92,WNW,285,0.0,0.0,76,0.00,,---,0.00,VWS V14.01,2013-04-29 00:48:00,
2013-04-28 19:49:00,61.3,53.7,29.92,WNW,285,0.0,0.0,76,0.00,,---,0.00,VWS V14.01,2013-04-29 00:49:00,
2013-04-28 19:50:00,61.2,53.6,29.92,WNW,285,0.0,0.0,76,0.00,,---,0.00,VWS V14.01,2013-04-29 00:50:00,
2013-04-28 19:51:00,61.1,53.5,29.92,WNW,285,0.0,0.0,76,0.00,,---,0.00,VWS V14.01,2013-04-29 00:51:00,
2013-04-28 19:53:00,60.9,53.7,29.92,WNW,285,0.0,0.0,77,0.00,,---,0.00,VWS V14.01,2013-04-29 00:53:00,
2013-04-28 19:54:00,60.9,53.7,29.92,WNW,285,0.0,0.0,77,0.00,,---,0.00,VWS V14.01,2013-04-29 00:54:00,
2013-04-28 19:55:00,60.8,53.5,29.92,WNW,285,0.0,0.0,77,0.00,,---,0.00,VWS V14.01,2013-04-29 00:55:00,
2013-04-28 19:56:00,60.7,53.5,29.92,WNW,285,0.0,0.0,77,0.00,,---,0.00,VWS V14.01,2013-04-29 00:56:00,
2013-04-28 19:59:00,60.5,53.6,29.92,WNW,285,0.0,0.0,78,0.00,,---,0.00,VWS V14.01,2013-04-29 00:59:00,
2013-04-28 20:00:00,60.5,53.6,29.92,WNW,285,0.0,0.0,78,0.00,,---,0.00,VWS V14.01,2013-04-29 01:00:00,
2013-04-28 20:01:00,60.3,53.4,29.93,WNW,285,0.0,0.0,78,0.00,,---,0.00,VWS V14.01,2013-04-29 01:01:00,
2013-04-28 20:04:00,60.2,53.3,29.92,WNW,285,0.0,0.0,78,0.00,,---,0.00,VWS V14.01,2013-04-29 01:04:00,
2013-04-28 20:05:00,60.2,53.3,29.93,WNW,285,0.0,0.0,78,0.00,,---,0.00,VWS V14.01,2013-04-29 01:05:00,
2013-04-28 20:06:00,60.1,53.2,29.92,WNW,285,0.0,0.0,78,0.00,,---,0.00,VWS V14.01,2013-04-29 01:06:00,
2013-04-28 20:09:00,59.9,53.4,29.93,WNW,285,0.0,0.0,79,0.00,,---,0.00,VWS V14.01,2013-04-29 01:09:00,
2013-04-28 20:10:00,59.9,53.4,29.93,WNW,284,0.0,0.0,79,0.00,,---,0.00,VWS V14.01,2013-04-29 01:10:00,
2013-04-28 20:11:00,59.8,53.3,29.93,WNW,284,0.0,0.0,79,0.00,,---,0.00,VWS V14.01,2013-04-29 01:11:00,
2013-04-28 20:14:00,59.7,53.2,29.93,WNW,285,0.0,0.0,79,0.00,,---,0.00,VWS V14.01,2013-04-29 01:14:00,
2013-04-28 20:15:00,59.6,53.1,29.93,WNW,284,0.0,0.0,79,0.00,,---,0.00,VWS V14.01,2013-04-29 01:15:00,
2013-04-28 20:16:00,59.5,53.0,29.93,WNW,284,0.0,0.0,79,0.00,,---,0.00,VWS V14.01,2013-04-29 01:16:00,
2013-04-28 20:19:00,59.4,53.2,29.93,WNW,284,0.0,0.0,80,0.00,,---,0.00,VWS V14.01,2013-04-29 01:19:00,
2013-04-28 20:20:00,59.3,53.1,29.93,WNW,285,0.0,0.0,80,0.00,,---,0.00,VWS V14.01,2013-04-29 01:20:00,
2013-04-28 20:21:00,59.3,53.0,29.93,WNW,285,0.0,0.0,80,0.00,,,0.00,weatherlink.com 1.10,2013-04-29 01:21:00,
2013-04-28 20:24:00,59.1,53.3,29.93,WNW,285,0.0,0.0,81,0.00,,---,0.00,VWS V14.01,2013-04-29 01:24:00,
2013-04-28 20:25:00,59.1,53.3,29.93,WNW,285,0.0,0.0,81,0.00,,---,0.00,VWS V14.01,2013-04-29 01:25:00,
2013-04-28 20:26:00,58.9,53.1,29.93,WNW,285,0.0,0.0,81,0.00,,---,0.00,VWS V14.01,2013-04-29 01:26:00,
2013-04-28 20:29:00,58.7,52.9,29.93,WNW,284,0.0,0.0,81,0.00,,---,0.00,VWS V14.01,2013-04-29 01:29:00,
2013-04-28 20:30:00,58.7,53.2,29.93,WNW,285,0.0,0.0,82,0.00,,---,0.00,VWS V14.01,2013-04-29 01:30:00,
2013-04-28 20:31:00,58.6,53.1,29.93,WNW,285,0.0,0.0,82,0.00,,---,0.00,VWS V14.01,2013-04-29 01:31:00,
2013-04-28 20:32:00,58.6,53.1,29.93,WNW,285,0.0,0.0,82,0.00,,---,0.00,VWS V14.01,2013-04-29 01:32:00,
2013-04-28 20:35:00,58.3,52.8,29.93,WNW,285,0.0,0.0,82,0.00,,---,0.00,VWS V14.01,2013-04-29 01:35:00,
2013-04-28 20:36:00,58.3,52.8,29.93,WNW,285,0.0,0.0,82,0.00,,---,0.00,VWS V14.01,2013-04-29 01:36:00,
2013-04-28 20:37:00,58.2,52.7,29.93,WNW,285,0.0,0.0,82,0.00,,---,0.00,VWS V14.01,2013-04-29 01:37:00,
2013-04-28 20:40:00,57.9,52.5,29.93,WNW,284,0.0,0.0,82,0.00,,---,0.00,VWS V14.01,2013-04-29 01:40:00,
2013-04-28 20:41:00,57.8,52.7,29.93,WNW,285,0.0,0.0,83,0.00,,---,0.00,VWS V14.01,2013-04-29 01:41:00,
2013-04-28 20:42:00,57.8,52.7,29.93,WNW,284,0.0,0.0,83,0.00,,---,0.00,VWS V14.01,2013-04-29 01:42:00,
2013-04-28 20:45:00,57.6,52.5,29.93,WNW,285,0.0,0.0,83,0.00,,---,0.00,VWS V14.01,2013-04-29 01:45:00,
2013-04-28 20:46:00,57.5,52.4,29.93,WNW,284,0.0,0.0,83,0.00,,---,0.00,VWS V14.01,2013-04-29 01:46:00,
2013-04-28 20:47:00,57.5,52.7,29.93,WNW,285,0.0,0.0,84,0.00,,---,0.00,VWS V14.01,2013-04-29 01:47:00,
2013-04-28 20:50:00,57.4,52.6,29.93,WNW,285,0.0,0.0,84,0.00,,---,0.00,VWS V14.01,2013-04-29 01:50:00,
2013-04-28 20:51:00,57.3,52.5,29.93,WNW,285,0.0,0.0,84,0.00,,---,0.00,VWS V14.01,2013-04-29 01:51:00,
2013-04-28 20:52:00,57.3,52.5,29.93,WNW,285,0.0,0.0,84,0.00,,---,0.00,VWS V14.01,2013-04-29 01:52:00,
2013-04-28 20:55:00,57.2,52.4,29.93,WNW,285,0.0,0.0,84,0.00,,---,0.00,VWS V14.01,2013-04-29 01:55:00,
2013-04-28 20:56:00,57.1,52.3,29.93,WNW,284,0.0,0.0,84,0.00,,---,0.00,VWS V14.01,2013-04-29 01:56:00,
2013-04-28 20:57:00,57.1,52.3,29.93,WNW,285,0.0,0.0,84,0.00,,---,0.00,VWS V14.01,2013-04-29 01:57:00,
2013-04-28 20:58:00,57.1,52.6,29.93,WNW,285,0.0,0.0,85,0.00,,---,0.00,VWS V14.01,2013-04-29 01:58:00,
2013-04-28 21:00:00,57.0,52.5,29.93,WNW,285,0.0,0.0,85,0.00,,---,0.00,VWS V14.01,2013-04-29 02:00:00,
2013-04-28 21:01:00,57.0,52.5,29.93,WNW,285,0.0,0.0,85,0.00,,---,0.00,VWS V14.01,2013-04-29 02:01:00,
2013-04-28 21:02:00,56.9,52.4,29.93,WNW,285,0.0,0.0,85,0.00,,---,0.00,VWS V14.01,2013-04-29 02:02:00,
2013-04-28 21:03:00,56.9,52.4,29.93,WNW,284,0.0,0.0,85,0.00,,---,0.00,VWS V14.01,2013-04-29 02:03:00,
2013-04-28 21:05:00,56.8,52.3,29.93,WNW,285,0.0,0.0,85,0.00,,---,0.00,VWS V14.01,2013-04-29 02:05:00,
2013-04-28 21:06:00,56.8,52.3,29.93,WNW,285,0.0,0.0,85,0.00,,---,0.00,VWS V14.01,2013-04-29 02:06:00,
2013-04-28 21:07:00,56.8,52.3,29.94,WNW,285,0.0,0.0,85,0.00,,---,0.00,VWS V14.01,2013-04-29 02:07:00,
2013-04-28 21:08:00,56.7,52.2,29.93,WNW,285,0.0,0.0,85,0.00,,---,0.00,VWS V14.01,2013-04-29 02:08:00,
2013-04-28 21:11:00,56.7,52.6,29.94,WNW,285,0.0,0.0,86,0.00,,---,0.00,VWS V14.01,2013-04-29 02:11:00,
2013-04-28 21:12:00,56.6,52.5,29.94,WNW,284,0.0,0.0,86,0.00,,---,0.00,VWS V14.01,2013-04-29 02:12:00,
2013-04-28 21:14:00,56.5,52.4,29.94,WNW,285,0.0,0.0,86,0.00,,---,0.00,VWS V14.01,2013-04-29 02:14:00,
2013-04-28 21:16:00,56.5,52.4,29.94,WNW,285,0.0,0.0,86,0.00,,---,0.00,VWS V14.01,2013-04-29 02:16:00,
2013-04-28 21:17:00,56.4,52.3,29.94,WNW,285,0.0,0.0,86,0.00,,---,0.00,VWS V14.01,2013-04-29 02:17:00,
2013-04-28 21:19:00,56.3,52.2,29.94,WNW,285,0.0,0.0,86,0.00,,---,0.00,VWS V14.01,2013-04-29 02:19:00,
2013-04-28 21:21:00,56.2,52.1,29.94,WNW,285,0.0,0.0,86,0.00,,---,0.00,VWS V14.01,2013-04-29 02:21:00,
2013-04-28 21:22:00,56.1,52.0,29.94,WNW,285,0.0,0.0,86,0.00,,---,0.00,VWS V14.01,2013-04-29 02:22:00,
2013-04-28 21:23:00,56.1,52.0,29.94,WNW,285,0.0,0.0,86,0.00,,---,0.00,VWS V14.01,2013-04-29 02:23:00,
2013-04-28 21:24:00,56.1,52.3,29.94,WNW,285,0.0,0.0,87,0.00,,---,0.00,VWS V14.01,2013-04-29 02:24:00,
2013-04-28 21:26:00,56.1,52.3,29.94,WNW,285,0.0,0.0,87,0.00,,---,0.00,VWS V14.01,2013-04-29 02:26:00,
2013-04-28 21:27:00,56.0,52.2,29.94,WNW,285,0.0,0.0,87,0.00,,---,0.00,VWS V14.01,2013-04-29 02:27:00,
2013-04-28 21:28:00,56.0,52.2,29.94,WNW,285,0.0,0.0,87,0.00,,---,0.00,VWS V14.01,2013-04-29 02:28:00,
2013-04-28 21:29:00,56.0,52.2,29.94,WNW,285,0.0,0.0,87,0.00,,---,0.00,VWS V14.01,2013-04-29 02:29:00,
2013-04-28 21:31:00,55.9,52.1,29.94,WNW,285,0.0,0.0,87,0.00,,---,0.00,VWS V14.01,2013-04-29 02:31:00,
2013-04-28 21:32:00,55.9,51.8,29.94,WNW,284,0.0,0.0,86,0.00,,---,0.00,VWS V14.01,2013-04-29 02:32:00,
2013-04-28 21:33:00,55.8,52.0,29.94,WNW,284,0.0,0.0,87,0.00,,---,0.00,VWS V14.01,2013-04-29 02:33:00,
2013-04-28 21:34:00,55.8,52.0,29.94,WNW,284,0.0,0.0,87,0.00,,---,0.00,VWS V14.01,2013-04-29 02:34:00,
2013-04-28 21:36:00,55.8,52.0,29.94,WNW,285,0.0,0.0,87,0.00,,---,0.00,VWS V14.01,2013-04-29 02:36:00,
2013-04-28 21:37:00,55.8,52.0,29.94,WNW,285,0.0,0.0,87,0.00,,---,0.00,VWS V14.01,2013-04-29 02:37:00,
2013-04-28 21:38:00,55.8,52.0,29.94,WNW,285,0.0,0.0,87,0.00,,---,0.00,VWS V14.01,2013-04-29 02:38:00,
2013-04-28 21:39:00,55.8,52.0,29.94,WNW,285,0.0,0.0,87,0.00,,---,0.00,VWS V14.01,2013-04-29 02:39:00,
2013-04-28 21:41:00,55.7,51.9,29.94,WNW,284,0.0,0.0,87,0.00,,---,0.00,VWS V14.01,2013-04-29 02:41:00,
2013-04-28 21:42:00,55.7,51.9,29.94,WNW,284,0.0,0.0,87,0.00,,---,0.00,VWS V14.01,2013-04-29 02:42:00,
2013-04-28 21:43:00,55.7,51.9,29.94,WNW,284,0.0,0.0,87,0.00,,---,0.00,VWS V14.01,2013-04-29 02:43:00,
2013-04-28 21:44:00,55.6,51.8,29.94,WNW,285,0.0,0.0,87,0.00,,---,0.00,VWS V14.01,2013-04-29 02:44:00,
2013-04-28 21:46:00,55.5,51.7,29.94,WNW,285,0.0,0.0,87,0.00,,---,0.00,VWS V14.01,2013-04-29 02:46:00,
2013-04-28 21:47:00,55.5,51.7,29.94,WNW,285,0.0,0.0,87,0.00,,---,0.00,VWS V14.01,2013-04-29 02:47:00,
2013-04-28 21:48:00,55.5,51.7,29.94,WNW,284,0.0,0.0,87,0.00,,---,0.00,VWS V14.01,2013-04-29 02:48:00,
2013-04-28 21:49:00,55.4,51.6,29.94,WNW,285,0.0,0.0,87,0.00,,---,0.00,VWS V14.01,2013-04-29 02:49:00,
2013-04-28 21:51:00,55.4,51.9,29.94,WNW,285,0.0,0.0,88,0.00,,---,0.00,VWS V14.01,2013-04-29 02:51:00,
2013-04-28 21:52:00,55.3,51.8,29.94,WNW,285,0.0,0.0,88,0.00,,---,0.00,VWS V14.01,2013-04-29 02:52:00,
2013-04-28 21:54:00,55.3,51.8,29.94,WNW,284,0.0,0.0,88,0.00,,---,0.00,VWS V14.01,2013-04-29 02:54:00,
2013-04-28 21:55:00,55.3,51.8,29.94,WNW,284,0.0,0.0,88,0.00,,---,0.00,VWS V14.01,2013-04-29 02:55:00,
2013-04-28 21:56:00,55.3,51.8,29.94,WNW,284,0.0,0.0,88,0.00,,---,0.00,VWS V14.01,2013-04-29 02:56:00,
2013-04-28 21:57:00,55.2,51.7,29.94,WNW,285,0.0,0.0,88,0.00,,---,0.00,VWS V14.01,2013-04-29 02:57:00,
2013-04-28 21:59:00,55.2,51.7,29.94,WNW,285,0.0,0.0,88,0.00,,---,0.00,VWS V14.01,2013-04-29 02:59:00,
2013-04-28 22:00:00,55.2,51.7,29.94,WNW,285,0.0,0.0,88,0.00,,---,0.00,VWS V14.01,2013-04-29 03:00:00,
2013-04-28 22:02:00,55.1,51.9,29.94,WNW,285,0.0,0.0,89,0.00,,---,0.00,VWS V14.01,2013-04-29 03:02:00,
2013-04-28 22:04:00,55.1,51.9,29.94,WNW,285,0.0,0.0,89,0.00,,---,0.00,VWS V14.01,2013-04-29 03:04:00,
2013-04-28 22:05:00,55.1,51.9,29.94,WNW,284,0.0,0.0,89,0.00,,---,0.00,VWS V14.01,2013-04-29 03:05:00,
2013-04-28 22:07:00,55.0,51.8,29.94,WNW,285,0.0,0.0,89,0.00,,---,0.00,VWS V14.01,2013-04-29 03:07:00,
2013-04-28 22:08:00,55.0,51.8,29.94,WNW,284,0.0,0.0,89,0.00,,---,0.00,VWS V14.01,2013-04-29 03:08:00,
2013-04-28 22:09:00,54.9,51.7,29.95,WNW,284,0.0,0.0,89,0.00,,---,0.00,VWS V14.01,2013-04-29 03:09:00,
2013-04-28 22:10:00,54.9,51.7,29.95,WNW,284,0.0,0.0,89,0.00,,---,0.00,VWS V14.01,2013-04-29 03:10:00,
2013-04-28 22:12:00,54.8,51.6,29.95,WNW,285,0.0,0.0,89,0.00,,---,0.00,VWS V14.01,2013-04-29 03:12:00,
2013-04-28 22:13:00,54.7,51.5,29.95,WNW,284,0.0,0.0,89,0.00,,---,0.00,VWS V14.01,2013-04-29 03:13:00,
2013-04-28 22:15:00,54.6,51.4,29.95,WNW,285,0.0,0.0,89,0.00,,---,0.00,VWS V14.01,2013-04-29 03:15:00,
2013-04-28 22:17:00,54.5,51.3,29.95,WNW,285,0.0,0.0,89,0.00,,---,0.00,VWS V14.01,2013-04-29 03:17:00,
2013-04-28 22:18:00,54.4,51.2,29.95,WNW,285,0.0,0.0,89,0.00,,---,0.00,VWS V14.01,2013-04-29 03:18:00,
2013-04-28 22:20:00,54.3,51.1,29.95,WNW,285,0.0,0.0,89,0.00,,---,0.00,VWS V14.01,2013-04-29 03:20:00,
2013-04-28 22:21:00,54.3,51.1,29.95,WNW,284,0.0,0.0,89,0.00,,---,0.00,VWS V14.01,2013-04-29 03:21:00,
2013-04-28 22:22:00,54.2,51.0,29.95,WNW,285,0.0,0.0,89,0.00,,---,0.00,VWS V14.01,2013-04-29 03:22:00,
2013-04-28 22:23:00,54.1,50.9,29.95,WNW,285,0.0,0.0,89,0.00,,---,0.00,VWS V14.01,2013-04-29 03:23:00,
2013-04-28 22:25:00,54.1,51.2,29.94,WNW,285,0.0,0.0,90,0.00,,---,0.00,VWS V14.01,2013-04-29 03:25:00,
2013-04-28 22:26:00,54.1,51.2,29.94,WNW,284,0.0,0.0,90,0.00,,---,0.00,VWS V14.01,2013-04-29 03:26:00,
2013-04-28 22:27:00,54.1,51.2,29.95,WNW,285,0.0,0.0,90,0.00,,---,0.00,VWS V14.01,2013-04-29 03:27:00,
2013-04-28 22:28:00,54.1,51.2,29.95,WNW,285,0.0,0.0,90,0.00,,---,0.00,VWS V14.01,2013-04-29 03:28:00,
2013-04-28 22:30:00,54.0,51.1,29.94,WNW,285,0.0,0.0,90,0.00,,---,0.00,VWS V14.01,2013-04-29 03:30:00,
2013-04-28 22:31:00,54.0,51.1,29.94,WNW,285,0.0,0.0,90,0.00,,---,0.00,VWS V14.01,2013-04-29 03:31:00,
2013-04-28 22:32:00,53.9,51.0,29.94,WNW,285,0.0,0.0,90,0.00,,---,0.00,VWS V14.01,2013-04-29 03:32:00,
2013-04-28 22:34:00,53.9,51.0,29.94,WNW,285,0.0,0.0,90,0.00,,---,0.00,VWS V14.01,2013-04-29 03:34:00,
2013-04-28 22:35:00,53.8,50.9,29.94,WNW,285,0.0,0.0,90,0.00,,---,0.00,VWS V14.01,2013-04-29 03:35:00,
2013-04-28 22:36:00,53.8,50.9,29.94,WNW,284,0.0,0.0,90,0.00,,---,0.00,VWS V14.01,2013-04-29 03:36:00,
2013-04-28 22:38:00,53.7,50.8,29.94,WNW,285,0.0,0.0,90,0.00,,---,0.00,VWS V14.01,2013-04-29 03:38:00,
2013-04-28 22:39:00,53.6,51.0,29.94,WNW,285,0.0,0.0,91,0.00,,---,0.00,VWS V14.01,2013-04-29 03:39:00,
2013-04-28 22:40:00,53.6,51.0,29.94,WNW,284,0.0,0.0,91,0.00,,---,0.00,VWS V14.01,2013-04-29 03:40:00,
2013-04-28 22:41:00,53.6,51.0,29.94,WNW,285,0.0,0.0,91,0.00,,---,0.00,VWS V14.01,2013-04-29 03:41:00,
2013-04-28 22:42:00,53.6,51.0,29.94,WNW,284,0.0,0.0,91,0.00,,---,0.00,VWS V14.01,2013-04-29 03:42:00,
2013-04-28 22:43:00,53.6,51.0,29.94,WNW,285,0.0,0.0,91,0.00,,---,0.00,VWS V14.01,2013-04-29 03:43:00,
2013-04-28 22:44:00,53.6,51.3,29.94,WNW,284,0.0,0.0,92,0.00,,---,0.00,VWS V14.01,2013-04-29 03:44:00,
2013-04-28 22:45:00,53.6,51.3,29.94,WNW,285,0.0,0.0,92,0.00,,---,0.00,VWS V14.01,2013-04-29 03:45:00,
2013-04-28 22:46:00,53.6,51.3,29.94,WNW,284,0.0,0.0,92,0.00,,---,0.00,VWS V14.01,2013-04-29 03:46:00,
2013-04-28 22:47:00,53.6,51.3,29.94,WNW,285,0.0,0.0,92,0.00,,---,0.00,VWS V14.01,2013-04-29 03:47:00,
2013-04-28 22:48:00,53.6,51.3,29.94,WNW,285,0.0,0.0,92,0.00,,---,0.00,VWS V14.01,2013-04-29 03:48:00,
2013-04-28 22:49:00,53.7,51.4,29.94,WNW,284,0.0,0.0,92,0.00,,---,0.00,VWS V14.01,2013-04-29 03:49:00,
2013-04-28 22:50:00,53.7,51.4,29.94,WNW,285,0.0,0.0,92,0.00,,---,0.00,VWS V14.01,2013-04-29 03:50:00,
2013-04-28 22:51:00,53.7,51.4,29.94,WNW,285,0.0,0.0,92,0.00,,---,0.00,VWS V14.01,2013-04-29 03:51:00,
2013-04-28 22:52:00,53.7,51.4,29.94,WNW,285,0.0,0.0,92,0.00,,---,0.00,VWS V14.01,2013-04-29 03:52:00,
2013-04-28 22:53:00,53.7,51.4,29.94,WNW,284,0.0,0.0,92,0.00,,---,0.00,VWS V14.01,2013-04-29 03:53:00,
2013-04-28 22:54:00,53.7,51.4,29.94,WNW,285,0.0,0.0,92,0.00,,---,0.00,VWS V14.01,2013-04-29 03:54:00,
2013-04-28 22:55:00,53.7,51.7,29.94,WNW,285,0.0,0.0,93,0.00,,---,0.00,VWS V14.01,2013-04-29 03:55:00,
2013-04-28 22:56:00,53.7,51.7,29.94,WNW,285,0.0,0.0,93,0.00,,---,0.00,VWS V14.01,2013-04-29 03:56:00,
2013-04-28 22:57:00,53.7,51.7,29.94,WNW,285,0.0,0.0,93,0.00,,---,0.00,VWS V14.01,2013-04-29 03:57:00,
2013-04-28 22:58:00,53.7,51.7,29.94,WNW,285,0.0,0.0,93,0.00,,---,0.00,VWS V14.01,2013-04-29 03:58:00,
2013-04-28 22:59:00,53.7,51.7,29.94,WNW,284,0.0,0.0,93,0.00,,---,0.00,VWS V14.01,2013-04-29 03:59:00,
2013-04-28 23:00:00,53.7,51.7,29.94,WNW,284,0.0,0.0,93,0.00,,---,0.00,VWS V14.01,2013-04-29 04:00:00,
2013-04-28 23:01:00,53.7,51.7,29.94,WNW,285,0.0,0.0,93,0.00,,---,0.00,VWS V14.01,2013-04-29 04:01:00,
2013-04-28 23:06:00,53.6,51.6,29.94,WNW,285,0.0,0.0,93,0.00,,---,0.00,VWS V14.01,2013-04-29 04:06:00,
2013-04-28 23:11:00,53.4,51.4,29.94,WNW,285,0.0,0.0,93,0.00,,---,0.00,VWS V14.01,2013-04-29 04:11:00,
2013-04-28 23:16:00,53.2,51.2,29.94,WNW,285,0.0,0.0,93,0.00,,---,0.00,VWS V14.01,2013-04-29 04:16:00,
2013-04-28 23:21:00,53.1,51.1,29.94,WNW,285,0.0,0.0,93,0.00,,---,0.00,VWS V14.01,2013-04-29 04:21:00,
2013-04-28 23:26:00,53.1,51.1,29.94,WNW,284,0.0,0.0,93,0.00,,---,0.00,VWS V14.01,2013-04-29 04:26:00,
2013-04-28 23:27:00,53.1,51.1,29.94,WNW,285,0.0,0.0,93,0.00,,---,0.00,VWS V14.01,2013-04-29 04:27:00,
2013-04-28 23:31:00,53.0,51.3,29.94,WNW,285,0.0,0.0,94,0.00,,---,0.00,VWS V14.01,2013-04-29 04:31:00,
2013-04-28 23:32:00,53.0,51.3,29.94,WNW,285,0.0,0.0,94,0.00,,---,0.00,VWS V14.01,2013-04-29 04:32:00,
2013-04-28 23:36:00,52.9,51.2,29.94,WNW,285,0.0,0.0,94,0.00,,---,0.00,VWS V14.01,2013-04-29 04:36:00,
2013-04-28 23:37:00,52.9,51.2,29.94,WNW,285,0.0,0.0,94,0.00,,---,0.00,VWS V14.01,2013-04-29 04:37:00,
2013-04-28 23:42:00,52.8,51.1,29.94,WNW,285,0.0,0.0,94,0.00,,---,0.00,VWS V14.01,2013-04-29 04:42:00,
2013-04-28 23:47:00,52.6,50.9,29.94,WNW,285,0.0,0.0,94,0.00,,---,0.00,VWS V14.01,2013-04-29 04:47:00,
2013-04-28 23:52:00,52.5,50.8,29.94,WNW,285,0.0,0.0,94,0.00,,---,0.00,VWS V14.01,2013-04-29 04:52:00,
2013-04-28 23:57:00,52.5,51.1,29.94,WNW,285,0.0,0.0,95,0.00,,---,0.00,VWS V14.01,2013-04-29 04:57:00,
2013-04-28 23:58:00,52.5,51.1,29.94,WNW,285,0.0,0.0,95,0.00,,---,0.00,VWS V14.01,2013-04-29 04:58:00,